Time,TemperatureF,DewpointF,PressureIn,WindDirection,WindDirectionDegrees,WindSpeedMPH,WindSpeedGustMPH,Humidity,HourlyPrecipIn,Conditions,Clouds,dailyrainin,SoftwareType,DateUTC
2013-07-27 00:00:00,57.2,47.9,29.56,North,0,0.0,0.0,71,0.00,,,0.00,WUHU216HW,2013-07-27 07:00:00,
2013-07-27 00:02:00,57.2,47.9,29.56,North,0,0.0,0.0,71,0.00,,,0.00,WUHU216HW,2013-07-27 07:02:00,
2013-07-27 00:04:00,56.9,47.5,29.56,North,0,0.0,0.0,71,0.00,,,0.00,WUHU216HW,2013-07-27 07:04:00,
2013-07-27 00:06:00,56.9,47.5,29.56,North,0,0.0,0.0,71,0.00,,,0.00,WUHU216HW,2013-07-27 07:06:00,
2013-07-27 00:07:00,56.9,47.5,29.56,North,0,0.0,0.0,71,0.00,,,0.00,WUHU216HW,2013-07-27 07:07:00,
2013-07-27 00:08:00,56.9,47.5,29.56,North,0,0.0,0.0,71,0.00,,,0.00,WUHU216HW,2013-07-27 07:08:00,
2013-07-27 00:09:00,56.7,47.4,29.56,North,0,0.0,0.0,71,0.00,,,0.00,WUHU216HW,2013-07-27 07:09:00,
2013-07-27 00:10:00,56.7,47.4,29.56,North,0,0.0,0.0,71,0.00,,,0.00,WUHU216HW,2013-07-27 07:10:00,
2013-07-27 00:11:00,56.7,47.4,29.55,North,0,0.0,0.0,71,0.00,,,0.00,WUHU216HW,2013-07-27 07:11:00,
2013-07-27 00:12:00,56.7,47.4,29.55,North,0,0.0,0.0,71,0.00,,,0.00,WUHU216HW,2013-07-27 07:12:00,
2013-07-27 00:13:00,56.7,47.4,29.55,North,0,0.0,0.0,71,0.00,,,0.00,WUHU216HW,2013-07-27 07:13:00,
2013-07-27 00:14:00,56.5,47.3,29.55,North,0,0.0,0.0,71,0.00,,,0.00,WUHU216HW,2013-07-27 07:14:00,
2013-07-27 00:15:00,56.5,47.3,29.55,North,0,0.0,0.0,71,0.00,,,0.00,WUHU216HW,2013-07-27 07:15:00,
2013-07-27 00:16:00,56.5,47.3,29.55,North,0,0.0,0.0,71,0.00,,,0.00,WUHU216HW,2013-07-27 07:16:00,
2013-07-27 00:17:00,56.5,47.3,29.55,North,0,0.0,0.0,71,0.00,,,0.00,WUHU216HW,2013-07-27 07:17:00,
2013-07-27 00:18:00,56.5,47.3,29.55,North,0,0.0,0.0,71,0.00,,,0.00,WUHU216HW,2013-07-27 07:18:00,
2013-07-27 00:20:00,56.5,47.3,29.55,North,0,0.0,0.0,71,0.00,,,0.00,WUHU216HW,2013-07-27 07:20:00,
2013-07-27 00:21:00,56.3,47.4,29.55,North,0,0.0,0.0,72,0.00,,,0.00,WUHU216HW,2013-07-27 07:21:00,
2013-07-27 00:23:00,56.5,47.6,29.55,North,0,0.0,0.0,72,0.00,,,0.00,WUHU216HW,2013-07-27 07:23:00,
2013-07-27 00:25:00,56.3,47.4,29.56,North,0,0.0,0.0,72,0.00,,,0.00,WUHU216HW,2013-07-27 07:25:00,
2013-07-27 00:27:00,56.3,47.4,29.55,North,0,0.0,0.0,72,0.00,,,0.00,WUHU216HW,2013-07-27 07:27:00,
2013-07-27 00:28:00,56.3,47.4,29.55,North,0,0.0,0.0,72,0.00,,,0.00,WUHU216HW,2013-07-27 07:28:00,
2013-07-27 00:30:00,56.3,47.4,29.55,North,0,0.0,0.0,72,0.00,,,0.00,WUHU216HW,2013-07-27 07:30:00,
2013-07-27 00:32:00,56.3,47.4,29.55,North,0,0.0,0.0,72,0.00,,,0.00,WUHU216HW,2013-07-27 07:32:00,
2013-07-27 00:33:00,56.3,47.4,29.55,North,0,0.0,0.0,72,0.00,,,0.00,WUHU216HW,2013-07-27 07:33:00,
2013-07-27 00:35:00,56.3,47.4,29.55,North,0,0.0,0.0,72,0.00,,,0.00,WUHU216HW,2013-07-27 07:35:00,
2013-07-27 00:36:00,56.3,47.4,29.55,North,0,0.0,0.0,72,0.00,,,0.00,WUHU216HW,2013-07-27 07:36:00,
2013-07-27 00:37:00,56.3,47.4,29.55,North,0,0.0,0.0,72,0.00,,,0.00,WUHU216HW,2013-07-27 07:37:00,
2013-07-27 00:38:00,56.2,47.3,29.55,North,0,0.0,0.0,72,0.00,,,0.00,WUHU216HW,2013-07-27 07:38:00,
2013-07-27 00:41:00,56.2,47.3,29.56,North,0,0.0,0.0,72,0.00,,,0.00,WUHU216HW,2013-07-27 07:41:00,
2013-07-27 00:42:00,56.2,47.3,29.56,North,0,0.0,0.0,72,0.00,,,0.00,WUHU216HW,2013-07-27 07:42:00,
2013-07-27 00:43:00,56.2,47.3,29.56,North,0,0.0,0.0,72,0.00,,,0.00,WUHU216HW,2013-07-27 07:43:00,
2013-07-27 00:46:00,56.2,47.3,29.56,North,0,0.0,0.0,72,0.00,,,0.00,WUHU216HW,2013-07-27 07:46:00,
2013-07-27 00:47:00,56.0,47.1,29.56,North,0,0.0,0.0,72,0.00,,,0.00,WUHU216HW,2013-07-27 07:47:00,
2013-07-27 00:48:00,56.0,47.1,29.56,North,0,0.0,0.0,72,0.00,,,0.00,WUHU216HW,2013-07-27 07:48:00,
2013-07-27 00:49:00,56.0,47.1,29.56,North,0,0.0,0.0,72,0.00,,,0.00,WUHU216HW,2013-07-27 07:49:00,
2013-07-27 00:52:00,55.8,46.9,29.56,North,0,0.0,0.0,72,0.00,,,0.00,WUHU216HW,2013-07-27 07:52:00,
2013-07-27 00:53:00,55.8,46.9,29.56,North,0,0.0,0.0,72,0.00,,,0.00,WUHU216HW,2013-07-27 07:53:00,
2013-07-27 00:54:00,55.8,46.9,29.56,North,0,0.0,0.0,72,0.00,,,0.00,WUHU216HW,2013-07-27 07:54:00,
2013-07-27 00:57:00,55.6,47.1,29.56,North,0,0.0,0.0,73,0.00,,,0.00,WUHU216HW,2013-07-27 07:57:00,
2013-07-27 00:58:00,55.6,47.1,29.56,North,0,0.0,0.0,73,0.00,,,0.00,WUHU216HW,2013-07-27 07:58:00,
2013-07-27 00:59:00,55.6,47.1,29.56,North,0,0.0,0.0,73,0.00,,,0.00,WUHU216HW,2013-07-27 07:59:00,
2013-07-27 01:02:00,55.4,46.9,29.56,North,0,0.0,0.0,73,0.00,,,0.00,WUHU216HW,2013-07-27 08:02:00,
2013-07-27 01:03:00,55.4,46.9,29.56,North,0,0.0,0.0,73,0.00,,,0.00,WUHU216HW,2013-07-27 08:03:00,
2013-07-27 01:04:00,55.4,46.9,29.56,North,0,0.0,0.0,73,0.00,,,0.00,WUHU216HW,2013-07-27 08:04:00,
2013-07-27 01:07:00,55.1,46.6,29.57,North,0,0.0,0.0,73,0.00,,,0.00,WUHU216HW,2013-07-27 08:07:00,
2013-07-27 01:08:00,55.1,46.6,29.57,North,0,0.0,0.0,73,0.00,,,0.00,WUHU216HW,2013-07-27 08:08:00,
2013-07-27 01:09:00,55.1,46.6,29.56,North,0,0.0,0.0,73,0.00,,,0.00,WUHU216HW,2013-07-27 08:09:00,
2013-07-27 01:12:00,54.9,46.5,29.57,North,0,0.0,0.0,73,0.00,,,0.00,WUHU216HW,2013-07-27 08:12:00,
2013-07-27 01:13:00,54.9,46.5,29.57,North,0,0.0,0.0,73,0.00,,,0.00,WUHU216HW,2013-07-27 08:13:00,
2013-07-27 01:14:00,54.9,46.7,29.56,North,0,0.0,0.0,74,0.00,,,0.00,WUHU216HW,2013-07-27 08:14:00,
2013-07-27 01:17:00,54.7,46.6,29.56,North,0,0.0,0.0,74,0.00,,,0.00,WUHU216HW,2013-07-27 08:17:00,
2013-07-27 01:18:00,54.7,46.6,29.56,North,0,0.0,0.0,74,0.00,,,0.00,WUHU216HW,2013-07-27 08:18:00,
2013-07-27 01:19:00,54.7,46.3,29.56,North,0,0.0,0.0,73,0.00,,,0.00,WUHU216HW,2013-07-27 08:19:00,
2013-07-27 01:20:00,54.5,46.1,29.56,North,0,0.0,0.0,73,0.00,,,0.00,WUHU216HW,2013-07-27 08:20:00,
2013-07-27 01:23:00,54.5,46.1,29.56,North,0,0.0,0.0,73,0.00,,,0.00,WUHU216HW,2013-07-27 08:23:00,
2013-07-27 01:24:00,54.4,46.3,29.56,North,0,0.0,0.0,74,0.00,,,0.00,WUHU216HW,2013-07-27 08:24:00,
2013-07-27 01:25:00,54.4,46.3,29.56,North,0,0.0,0.0,74,0.00,,,0.00,WUHU216HW,2013-07-27 08:25:00,
2013-07-27 01:28:00,54.4,46.3,29.56,North,0,0.0,0.0,74,0.00,,,0.00,WUHU216HW,2013-07-27 08:28:00,
2013-07-27 01:29:00,54.2,46.1,29.56,North,0,0.0,0.0,74,0.00,,,0.00,WUHU216HW,2013-07-27 08:29:00,
2013-07-27 01:30:00,54.2,46.1,29.56,North,0,0.0,0.0,74,0.00,,,0.00,WUHU216HW,2013-07-27 08:30:00,
2013-07-27 01:32:00,54.2,46.1,29.56,North,0,0.0,0.0,74,0.00,,,0.00,WUHU216HW,2013-07-27 08:32:00,
2013-07-27 01:33:00,54.0,46.3,29.56,North,0,0.0,0.0,75,0.00,,,0.00,WUHU216HW,2013-07-27 08:33:00,
2013-07-27 01:34:00,54.0,46.3,29.56,North,0,0.0,0.0,75,0.00,,,0.00,WUHU216HW,2013-07-27 08:34:00,
2013-07-27 01:35:00,54.0,45.9,29.56,North,0,0.0,0.0,74,0.00,,,0.00,WUHU216HW,2013-07-27 08:35:00,
2013-07-27 01:37:00,54.0,46.3,29.56,North,0,0.0,0.0,75,0.00,,,0.00,WUHU216HW,2013-07-27 08:37:00,
2013-07-27 01:38:00,54.0,46.3,29.56,North,0,0.0,0.0,75,0.00,,,0.00,WUHU216HW,2013-07-27 08:38:00,
2013-07-27 01:39:00,54.0,46.3,29.56,North,0,0.0,0.0,75,0.00,,,0.00,WUHU216HW,2013-07-27 08:39:00,
2013-07-27 01:40:00,54.0,46.3,29.56,North,0,0.0,0.0,75,0.00,,,0.00,WUHU216HW,2013-07-27 08:40:00,
2013-07-27 01:42:00,54.2,46.8,29.56,North,0,0.0,0.0,76,0.00,,,0.00,WUHU216HW,2013-07-27 08:42:00,
2013-07-27 01:44:00,54.2,46.8,29.56,North,0,0.0,0.0,76,0.00,,,0.00,WUHU216HW,2013-07-27 08:44:00,
2013-07-27 01:45:00,54.2,46.8,29.56,North,0,0.0,0.0,76,0.00,,,0.00,WUHU216HW,2013-07-27 08:45:00,
2013-07-27 01:46:00,54.2,46.8,29.57,North,0,0.0,0.0,76,0.00,,,0.00,WUHU216HW,2013-07-27 08:46:00,
2013-07-27 01:47:00,54.2,46.8,29.56,North,0,0.0,0.0,76,0.00,,,0.00,WUHU216HW,2013-07-27 08:47:00,
2013-07-27 01:49:00,54.2,46.8,29.57,North,0,0.0,0.0,76,0.00,,,0.00,WUHU216HW,2013-07-27 08:49:00,
2013-07-27 01:50:00,54.2,46.5,29.56,North,0,0.0,0.0,75,0.00,,,0.00,WUHU216HW,2013-07-27 08:50:00,
2013-07-27 01:51:00,54.2,46.5,29.56,North,0,0.0,0.0,75,0.00,,,0.00,WUHU216HW,2013-07-27 08:51:00,
2013-07-27 01:53:00,54.2,46.5,29.57,North,0,0.0,0.0,75,0.00,,,0.00,WUHU216HW,2013-07-27 08:53:00,
2013-07-27 01:54:00,54.2,46.5,29.57,North,0,0.0,0.0,75,0.00,,,0.00,WUHU216HW,2013-07-27 08:54:00,
2013-07-27 01:55:00,54.2,46.5,29.57,North,0,0.0,0.0,75,0.00,,,0.00,WUHU216HW,2013-07-27 08:55:00,
2013-07-27 01:57:00,54.2,46.5,29.57,North,0,0.0,0.0,75,0.00,,,0.00,WUHU216HW,2013-07-27 08:57:00,
2013-07-27 01:58:00,54.0,46.3,29.57,North,0,0.0,0.0,75,0.00,,,0.00,WUHU216HW,2013-07-27 08:58:00,
2013-07-27 01:59:00,54.0,46.3,29.57,North,0,0.0,0.0,75,0.00,,,0.00,WUHU216HW,2013-07-27 08:59:00,
2013-07-27 02:00:00,54.0,46.3,29.57,North,0,0.0,0.0,75,0.00,,,0.00,WUHU216HW,2013-07-27 09:00:00,
2013-07-27 02:02:00,54.0,46.6,29.57,North,0,0.0,0.0,76,0.00,,,0.00,WUHU216HW,2013-07-27 09:02:00,
2013-07-27 02:03:00,54.0,46.6,29.57,North,0,0.0,0.0,76,0.00,,,0.00,WUHU216HW,2013-07-27 09:03:00,
2013-07-27 02:04:00,54.0,46.6,29.56,North,0,0.0,0.0,76,0.00,,,0.00,WUHU216HW,2013-07-27 09:04:00,
2013-07-27 02:05:00,54.0,46.6,29.56,North,0,0.0,0.0,76,0.00,,,0.00,WUHU216HW,2013-07-27 09:05:00,
2013-07-27 02:07:00,53.8,46.5,29.57,North,0,0.0,0.0,76,0.00,,,0.00,WUHU216HW,2013-07-27 09:07:00,
2013-07-27 02:08:00,53.8,46.5,29.57,North,0,0.0,0.0,76,0.00,,,0.00,WUHU216HW,2013-07-27 09:08:00,
2013-07-27 02:09:00,53.8,46.5,29.57,North,0,0.0,0.0,76,0.00,,,0.00,WUHU216HW,2013-07-27 09:09:00,
2013-07-27 02:10:00,53.6,46.3,29.57,North,0,0.0,0.0,76,0.00,,,0.00,WUHU216HW,2013-07-27 09:10:00,
2013-07-27 02:12:00,53.6,46.3,29.56,North,0,0.0,0.0,76,0.00,,,0.00,WUHU216HW,2013-07-27 09:12:00,
2013-07-27 02:13:00,53.6,46.3,29.56,North,0,0.0,0.0,76,0.00,,,0.00,WUHU216HW,2013-07-27 09:13:00,
2013-07-27 02:15:00,53.6,46.3,29.57,North,0,0.0,0.0,76,0.00,,,0.00,WUHU216HW,2013-07-27 09:15:00,
2013-07-27 02:17:00,53.5,46.1,29.57,North,0,0.0,0.0,76,0.00,,,0.00,WUHU216HW,2013-07-27 09:17:00,
2013-07-27 02:18:00,53.5,46.1,29.56,North,0,0.0,0.0,76,0.00,,,0.00,WUHU216HW,2013-07-27 09:18:00,
2013-07-27 02:20:00,53.3,45.9,29.57,North,0,0.0,0.0,76,0.00,,,0.00,WUHU216HW,2013-07-27 09:20:00,
2013-07-27 02:21:00,53.3,45.9,29.57,North,0,0.0,0.0,76,0.00,,,0.00,WUHU216HW,2013-07-27 09:21:00,
2013-07-27 02:22:00,53.3,45.9,29.56,North,0,0.0,0.0,76,0.00,,,0.00,WUHU216HW,2013-07-27 09:22:00,
2013-07-27 02:23:00,53.1,45.7,29.56,North,0,0.0,0.0,76,0.00,,,0.00,WUHU216HW,2013-07-27 09:23:00,
2013-07-27 02:25:00,53.1,45.7,29.56,North,0,0.0,0.0,76,0.00,,,0.00,WUHU216HW,2013-07-27 09:25:00,
2013-07-27 02:26:00,53.1,45.7,29.56,North,0,0.0,0.0,76,0.00,,,0.00,WUHU216HW,2013-07-27 09:26:00,
2013-07-27 02:28:00,52.9,45.5,29.56,North,0,0.0,0.0,76,0.00,,,0.00,WUHU216HW,2013-07-27 09:28:00,
2013-07-27 02:30:00,52.9,45.9,29.56,North,0,0.0,0.0,77,0.00,,,0.00,WUHU216HW,2013-07-27 09:30:00,
2013-07-27 02:31:00,52.9,45.9,29.56,North,0,0.0,0.0,77,0.00,,,0.00,WUHU216HW,2013-07-27 09:31:00,
2013-07-27 02:33:00,52.9,45.9,29.56,North,0,0.0,0.0,77,0.00,,,0.00,WUHU216HW,2013-07-27 09:33:00,
2013-07-27 02:34:00,52.9,46.3,29.56,North,0,0.0,0.0,78,0.00,,,0.00,WUHU216HW,2013-07-27 09:34:00,
2013-07-27 02:36:00,52.9,46.3,29.56,North,0,0.0,0.0,78,0.00,,,0.00,WUHU216HW,2013-07-27 09:36:00,
2013-07-27 02:37:00,52.9,46.3,29.56,North,0,0.0,0.0,78,0.00,,,0.00,WUHU216HW,2013-07-27 09:37:00,
2013-07-27 02:38:00,52.9,46.3,29.56,North,0,0.0,0.0,78,0.00,,,0.00,WUHU216HW,2013-07-27 09:38:00,
2013-07-27 02:39:00,52.9,46.3,29.56,North,0,0.0,0.0,78,0.00,,,0.00,WUHU216HW,2013-07-27 09:39:00,
2013-07-27 02:41:00,52.9,46.3,29.56,North,0,0.0,0.0,78,0.00,,,0.00,WUHU216HW,2013-07-27 09:41:00,
2013-07-27 02:42:00,52.9,46.3,29.56,North,0,0.0,0.0,78,0.00,,,0.00,WUHU216HW,2013-07-27 09:42:00,
2013-07-27 02:44:00,52.9,46.3,29.56,North,0,0.0,0.0,78,0.00,,,0.00,WUHU216HW,2013-07-27 09:44:00,
2013-07-27 02:46:00,53.1,46.4,29.56,North,0,0.0,0.0,78,0.00,,,0.00,WUHU216HW,2013-07-27 09:46:00,
2013-07-27 02:47:00,53.1,46.4,29.56,North,0,0.0,0.0,78,0.00,,,0.00,WUHU216HW,2013-07-27 09:47:00,
2013-07-27 02:49:00,53.1,46.4,29.56,North,0,0.0,0.0,78,0.00,,,0.00,WUHU216HW,2013-07-27 09:49:00,
2013-07-27 02:50:00,53.1,46.4,29.56,North,0,0.0,0.0,78,0.00,,,0.00,WUHU216HW,2013-07-27 09:50:00,
2013-07-27 02:52:00,53.1,46.4,29.56,North,0,0.0,0.0,78,0.00,,,0.00,WUHU216HW,2013-07-27 09:52:00,
2013-07-27 02:54:00,53.1,46.4,29.56,North,0,0.0,0.0,78,0.00,,,0.00,WUHU216HW,2013-07-27 09:54:00,
2013-07-27 02:55:00,53.1,46.4,29.56,North,0,0.0,0.0,78,0.00,,,0.00,WUHU216HW,2013-07-27 09:55:00,
2013-07-27 02:57:00,53.1,46.4,29.56,North,0,0.0,0.0,78,0.00,,,0.00,WUHU216HW,2013-07-27 09:57:00,
2013-07-27 03:00:00,53.1,46.4,29.56,North,0,0.0,0.0,78,0.00,,,0.00,WUHU216HW,2013-07-27 10:00:00,
2013-07-27 03:02:00,53.3,47.0,29.57,North,0,0.0,0.0,79,0.00,,,0.00,WUHU216HW,2013-07-27 10:02:00,
2013-07-27 03:03:00,53.3,47.0,29.57,North,0,0.0,0.0,79,0.00,,,0.00,WUHU216HW,2013-07-27 10:03:00,
2013-07-27 03:05:00,53.3,47.0,29.56,North,0,0.0,0.0,79,0.00,,,0.00,WUHU216HW,2013-07-27 10:05:00,
2013-07-27 03:08:00,53.3,46.6,29.56,North,0,0.0,0.0,78,0.00,,,0.00,WUHU216HW,2013-07-27 10:08:00,
2013-07-27 03:10:00,53.3,46.6,29.56,North,0,0.0,0.0,78,0.00,,,0.00,WUHU216HW,2013-07-27 10:10:00,
2013-07-27 03:12:00,53.3,46.6,29.56,North,0,0.0,0.0,78,0.00,,,0.00,WUHU216HW,2013-07-27 10:12:00,
2013-07-27 03:13:00,53.3,46.6,29.56,North,0,0.0,0.0,78,0.00,,,0.00,WUHU216HW,2013-07-27 10:13:00,
2013-07-27 03:15:00,53.1,46.8,29.56,North,0,0.0,0.0,79,0.00,,,0.00,WUHU216HW,2013-07-27 10:15:00,
2013-07-27 03:17:00,53.1,46.8,29.56,North,0,0.0,0.0,79,0.00,,,0.00,WUHU216HW,2013-07-27 10:17:00,
2013-07-27 03:18:00,53.1,46.8,29.56,North,0,0.0,0.0,79,0.00,,,0.00,WUHU216HW,2013-07-27 10:18:00,
2013-07-27 03:19:00,53.1,46.8,29.56,North,0,0.0,0.0,79,0.00,,,0.00,WUHU216HW,2013-07-27 10:19:00,
2013-07-27 03:21:00,53.1,46.4,29.56,North,0,0.0,0.0,78,0.00,,,0.00,WUHU216HW,2013-07-27 10:21:00,
2013-07-27 03:22:00,53.1,46.4,29.56,North,0,0.0,0.0,78,0.00,,,0.00,WUHU216HW,2013-07-27 10:22:00,
2013-07-27 03:23:00,53.1,46.4,29.56,North,0,0.0,0.0,78,0.00,,,0.00,WUHU216HW,2013-07-27 10:23:00,
2013-07-27 03:24:00,53.1,46.4,29.56,North,0,0.0,0.0,78,0.00,,,0.00,WUHU216HW,2013-07-27 10:24:00,
2013-07-27 03:26:00,52.9,46.3,29.56,North,0,0.0,0.0,78,0.00,,,0.00,WUHU216HW,2013-07-27 10:26:00,
2013-07-27 03:27:00,52.9,46.3,29.56,North,0,0.0,0.0,78,0.00,,,0.00,WUHU216HW,2013-07-27 10:27:00,
2013-07-27 03:28:00,52.9,46.3,29.56,North,0,0.0,0.0,78,0.00,,,0.00,WUHU216HW,2013-07-27 10:28:00,
2013-07-27 03:29:00,52.9,46.3,29.56,North,0,0.0,0.0,78,0.00,,,0.00,WUHU216HW,2013-07-27 10:29:00,
2013-07-27 03:31:00,52.7,46.1,29.57,North,0,0.0,0.0,78,0.00,,,0.00,WUHU216HW,2013-07-27 10:31:00,
2013-07-27 03:32:00,52.6,45.9,29.56,North,0,0.0,0.0,78,0.00,,,0.00,WUHU216HW,2013-07-27 10:32:00,
2013-07-27 03:33:00,52.6,45.9,29.57,North,0,0.0,0.0,78,0.00,,,0.00,WUHU216HW,2013-07-27 10:33:00,
2013-07-27 03:34:00,52.6,45.9,29.57,North,0,0.0,0.0,78,0.00,,,0.00,WUHU216HW,2013-07-27 10:34:00,
2013-07-27 03:36:00,52.4,45.7,29.56,North,0,0.0,0.0,78,0.00,,,0.00,WUHU216HW,2013-07-27 10:36:00,
2013-07-27 03:38:00,52.4,45.7,29.56,North,0,0.0,0.0,78,0.00,,,0.00,WUHU216HW,2013-07-27 10:38:00,
2013-07-27 03:39:00,52.4,45.7,29.57,North,0,0.0,0.0,78,0.00,,,0.00,WUHU216HW,2013-07-27 10:39:00,
2013-07-27 03:40:00,52.2,45.5,29.57,North,0,0.0,0.0,78,0.00,,,0.00,WUHU216HW,2013-07-27 10:40:00,
2013-07-27 03:42:00,52.2,45.5,29.57,North,0,0.0,0.0,78,0.00,,,0.00,WUHU216HW,2013-07-27 10:42:00,
2013-07-27 03:43:00,52.2,45.9,29.56,North,0,0.0,0.0,79,0.00,,,0.00,WUHU216HW,2013-07-27 10:43:00,
2013-07-27 03:44:00,52.2,45.9,29.56,North,0,0.0,0.0,79,0.00,,,0.00,WUHU216HW,2013-07-27 10:44:00,
2013-07-27 03:45:00,52.2,45.9,29.56,North,0,0.0,0.0,79,0.00,,,0.00,WUHU216HW,2013-07-27 10:45:00,
2013-07-27 03:47:00,52.0,45.7,29.56,North,0,0.0,0.0,79,0.00,,,0.00,WUHU216HW,2013-07-27 10:47:00,
2013-07-27 03:48:00,52.0,45.7,29.56,North,0,0.0,0.0,79,0.00,,,0.00,WUHU216HW,2013-07-27 10:48:00,
2013-07-27 03:49:00,52.0,45.7,29.57,North,0,0.0,0.0,79,0.00,,,0.00,WUHU216HW,2013-07-27 10:49:00,
2013-07-27 03:50:00,51.8,45.5,29.56,North,0,0.0,0.0,79,0.00,,,0.00,WUHU216HW,2013-07-27 10:50:00,
2013-07-27 03:52:00,51.8,45.5,29.56,North,0,0.0,0.0,79,0.00,,,0.00,WUHU216HW,2013-07-27 10:52:00,
2013-07-27 03:53:00,51.8,45.5,29.56,North,0,0.0,0.0,79,0.00,,,0.00,WUHU216HW,2013-07-27 10:53:00,
2013-07-27 03:54:00,51.8,45.5,29.56,North,0,0.0,0.0,79,0.00,,,0.00,WUHU216HW,2013-07-27 10:54:00,
2013-07-27 03:56:00,51.8,45.9,29.56,North,0,0.0,0.0,80,0.00,,,0.00,WUHU216HW,2013-07-27 10:56:00,
2013-07-27 03:57:00,51.8,45.9,29.56,North,0,0.0,0.0,80,0.00,,,0.00,WUHU216HW,2013-07-27 10:57:00,
2013-07-27 03:58:00,51.8,45.9,29.56,North,0,0.0,0.0,80,0.00,,,0.00,WUHU216HW,2013-07-27 10:58:00,
2013-07-27 03:59:00,51.8,45.9,29.56,North,0,0.0,0.0,80,0.00,,,0.00,WUHU216HW,2013-07-27 10:59:00,
2013-07-27 04:01:00,51.8,45.9,29.56,North,0,0.0,0.0,80,0.00,,,0.00,WUHU216HW,2013-07-27 11:01:00,
2013-07-27 04:02:00,51.8,46.2,29.56,North,0,0.0,0.0,81,0.00,,,0.00,WUHU216HW,2013-07-27 11:02:00,
2013-07-27 04:03:00,51.8,46.2,29.56,North,0,0.0,0.0,81,0.00,,,0.00,WUHU216HW,2013-07-27 11:03:00,
2013-07-27 04:04:00,51.8,45.9,29.56,North,0,0.0,0.0,80,0.00,,,0.00,WUHU216HW,2013-07-27 11:04:00,
2013-07-27 04:05:00,51.8,45.9,29.56,North,0,0.0,0.0,80,0.00,,,0.00,WUHU216HW,2013-07-27 11:05:00,
2013-07-27 04:06:00,51.8,45.9,29.56,North,0,0.0,0.0,80,0.00,,,0.00,WUHU216HW,2013-07-27 11:06:00,
2013-07-27 04:07:00,51.8,45.9,29.56,North,0,0.0,0.0,80,0.00,,,0.00,WUHU216HW,2013-07-27 11:07:00,
2013-07-27 04:09:00,51.8,45.9,29.56,North,0,0.0,0.0,80,0.00,,,0.00,WUHU216HW,2013-07-27 11:09:00,
2013-07-27 04:10:00,51.8,45.9,29.56,North,0,0.0,0.0,80,0.00,,,0.00,WUHU216HW,2013-07-27 11:10:00,
2013-07-27 04:11:00,51.7,45.7,29.56,North,0,0.0,0.0,80,0.00,,,0.00,WUHU216HW,2013-07-27 11:11:00,
2013-07-27 04:12:00,51.7,45.7,29.56,North,0,0.0,0.0,80,0.00,,,0.00,WUHU216HW,2013-07-27 11:12:00,
2013-07-27 04:14:00,51.7,45.7,29.56,North,0,0.0,0.0,80,0.00,,,0.00,WUHU216HW,2013-07-27 11:14:00,
2013-07-27 04:15:00,51.7,45.7,29.57,North,0,0.0,0.0,80,0.00,,,0.00,WUHU216HW,2013-07-27 11:15:00,
2013-07-27 04:16:00,51.7,45.7,29.57,North,0,0.0,0.0,80,0.00,,,0.00,WUHU216HW,2013-07-27 11:16:00,
2013-07-27 04:18:00,51.5,45.5,29.56,North,0,0.0,0.0,80,0.00,,,0.00,WUHU216HW,2013-07-27 11:18:00,
2013-07-27 04:19:00,51.5,45.8,29.56,North,0,0.0,0.0,81,0.00,,,0.00,WUHU216HW,2013-07-27 11:19:00,
2013-07-27 04:20:00,51.5,45.8,29.56,North,0,0.0,0.0,81,0.00,,,0.00,WUHU216HW,2013-07-27 11:20:00,
2013-07-27 04:21:00,51.5,45.8,29.56,North,0,0.0,0.0,81,0.00,,,0.00,WUHU216HW,2013-07-27 11:21:00,
2013-07-27 04:23:00,51.5,45.8,29.56,North,0,0.0,0.0,81,0.00,,,0.00,WUHU216HW,2013-07-27 11:23:00,
2013-07-27 04:24:00,51.5,45.8,29.56,North,0,0.0,0.0,81,0.00,,,0.00,WUHU216HW,2013-07-27 11:24:00,
2013-07-27 04:26:00,51.5,45.8,29.56,North,0,0.0,0.0,81,0.00,,,0.00,WUHU216HW,2013-07-27 11:26:00,
2013-07-27 04:27:00,51.5,46.2,29.56,North,0,0.0,0.0,82,0.00,,,0.00,WUHU216HW,2013-07-27 11:27:00,
2013-07-27 04:28:00,51.5,45.8,29.56,North,0,0.0,0.0,81,0.00,,,0.00,WUHU216HW,2013-07-27 11:28:00,
2013-07-27 04:30:00,51.5,45.8,29.56,North,0,0.0,0.0,81,0.00,,,0.00,WUHU216HW,2013-07-27 11:30:00,
2013-07-27 04:31:00,51.5,45.8,29.56,North,0,0.0,0.0,81,0.00,,,0.00,WUHU216HW,2013-07-27 11:31:00,
2013-07-27 04:32:00,51.5,46.2,29.56,North,0,0.0,0.0,82,0.00,,,0.00,WUHU216HW,2013-07-27 11:32:00,
2013-07-27 04:33:00,51.3,46.0,29.56,North,0,0.0,0.0,82,0.00,,,0.00,WUHU216HW,2013-07-27 11:33:00,
2013-07-27 04:35:00,51.5,46.2,29.56,North,0,0.0,0.0,82,0.00,,,0.00,WUHU216HW,2013-07-27 11:35:00,
2013-07-27 04:37:00,51.3,46.0,29.56,North,0,0.0,0.0,82,0.00,,,0.00,WUHU216HW,2013-07-27 11:37:00,
2013-07-27 04:39:00,51.3,46.0,29.56,North,0,0.0,0.0,82,0.00,,,0.00,WUHU216HW,2013-07-27 11:39:00,
2013-07-27 04:40:00,51.3,46.0,29.56,North,0,0.0,0.0,82,0.00,,,0.00,WUHU216HW,2013-07-27 11:40:00,
2013-07-27 04:42:00,51.3,46.0,29.56,North,0,0.0,0.0,82,0.00,,,0.00,WUHU216HW,2013-07-27 11:42:00,
2013-07-27 04:44:00,51.3,46.0,29.56,North,0,0.0,0.0,82,0.00,,,0.00,WUHU216HW,2013-07-27 11:44:00,
2013-07-27 04:45:00,51.3,46.0,29.56,North,0,0.0,0.0,82,0.00,,,0.00,WUHU216HW,2013-07-27 11:45:00,
2013-07-27 04:47:00,51.1,45.8,29.56,North,0,0.0,0.0,82,0.00,,,0.00,WUHU216HW,2013-07-27 11:47:00,
2013-07-27 04:48:00,51.1,45.8,29.56,North,0,0.0,0.0,82,0.00,,,0.00,WUHU216HW,2013-07-27 11:48:00,
2013-07-27 04:49:00,51.1,45.8,29.56,North,0,0.0,0.0,82,0.00,,,0.00,WUHU216HW,2013-07-27 11:49:00,
2013-07-27 04:50:00,51.1,45.8,29.56,North,0,0.0,0.0,82,0.00,,,0.00,WUHU216HW,2013-07-27 11:50:00,
2013-07-27 04:52:00,50.9,45.6,29.56,North,0,0.0,0.0,82,0.00,,,0.00,WUHU216HW,2013-07-27 11:52:00,
2013-07-27 04:53:00,50.9,45.6,29.56,North,0,0.0,0.0,82,0.00,,,0.00,WUHU216HW,2013-07-27 11:53:00,
2013-07-27 04:54:00,50.9,45.6,29.56,North,0,0.0,0.0,82,0.00,,,0.00,WUHU216HW,2013-07-27 11:54:00,
2013-07-27 04:55:00,50.9,45.9,29.56,North,0,0.0,0.0,83,0.00,,,0.00,WUHU216HW,2013-07-27 11:55:00,
2013-07-27 04:57:00,50.8,45.7,29.56,North,0,0.0,0.0,83,0.00,,,0.00,WUHU216HW,2013-07-27 11:57:00,
2013-07-27 04:58:00,50.8,45.7,29.56,North,0,0.0,0.0,83,0.00,,,0.00,WUHU216HW,2013-07-27 11:58:00,
2013-07-27 04:59:00,50.8,45.7,29.56,North,0,0.0,0.0,83,0.00,,,0.00,WUHU216HW,2013-07-27 11:59:00,
2013-07-27 05:00:00,50.8,45.7,29.56,North,0,0.0,0.0,83,0.00,,,0.00,WUHU216HW,2013-07-27 12:00:00,
2013-07-27 05:03:00,50.8,45.7,29.56,North,0,0.0,0.0,83,0.00,,,0.00,WUHU216HW,2013-07-27 12:03:00,
2013-07-27 05:04:00,50.8,45.7,29.56,North,0,0.0,0.0,83,0.00,,,0.00,WUHU216HW,2013-07-27 12:04:00,
2013-07-27 05:05:00,50.8,45.7,29.56,North,0,0.0,0.0,83,0.00,,,0.00,WUHU216HW,2013-07-27 12:05:00,
2013-07-27 05:08:00,50.8,45.7,29.56,North,0,0.0,0.0,83,0.00,,,0.00,WUHU216HW,2013-07-27 12:08:00,
2013-07-27 05:09:00,50.8,46.1,29.56,North,0,0.0,0.0,84,0.00,,,0.00,WUHU216HW,2013-07-27 12:09:00,
2013-07-27 05:10:00,50.8,46.1,29.56,North,0,0.0,0.0,84,0.00,,,0.00,WUHU216HW,2013-07-27 12:10:00,
2013-07-27 05:13:00,50.8,46.4,29.56,North,0,0.0,0.0,85,0.00,,,0.00,WUHU216HW,2013-07-27 12:13:00,
2013-07-27 05:14:00,50.8,46.4,29.56,North,0,0.0,0.0,85,0.00,,,0.00,WUHU216HW,2013-07-27 12:14:00,
2013-07-27 05:15:00,50.8,46.4,29.56,North,0,0.0,0.0,85,0.00,,,0.00,WUHU216HW,2013-07-27 12:15:00,
2013-07-27 05:18:00,50.9,46.5,29.56,North,0,0.0,0.0,85,0.00,,,0.00,WUHU216HW,2013-07-27 12:18:00,
2013-07-27 05:19:00,50.9,46.5,29.56,North,0,0.0,0.0,85,0.00,,,0.00,WUHU216HW,2013-07-27 12:19:00,
2013-07-27 05:21:00,50.9,46.3,29.56,North,0,0.0,0.0,84,0.00,,,0.00,WUHU216HW,2013-07-27 12:21:00,
2013-07-27 05:24:00,50.8,46.1,29.56,North,0,0.0,0.0,84,0.00,,,0.00,WUHU216HW,2013-07-27 12:24:00,
2013-07-27 05:26:00,50.8,46.1,29.56,North,0,0.0,0.0,84,0.00,,,0.00,WUHU216HW,2013-07-27 12:26:00,
2013-07-27 05:29:00,50.8,46.4,29.56,North,0,0.0,0.0,85,0.00,,,0.00,WUHU216HW,2013-07-27 12:29:00,
2013-07-27 05:31:00,50.8,46.4,29.56,North,0,0.0,0.0,85,0.00,,,0.00,WUHU216HW,2013-07-27 12:31:00,
2013-07-27 05:34:00,50.8,46.4,29.56,North,0,0.0,0.0,85,0.00,,,0.00,WUHU216HW,2013-07-27 12:34:00,
2013-07-27 05:35:00,50.8,46.4,29.56,North,0,0.0,0.0,85,0.00,,,0.00,WUHU216HW,2013-07-27 12:35:00,
2013-07-27 05:36:00,50.8,46.4,29.56,North,0,0.0,0.0,85,0.00,,,0.00,WUHU216HW,2013-07-27 12:36:00,
2013-07-27 05:39:00,50.6,46.2,29.56,North,0,0.0,0.0,85,0.00,,,0.00,WUHU216HW,2013-07-27 12:39:00,
2013-07-27 05:40:00,50.6,46.2,29.56,North,0,0.0,0.0,85,0.00,,,0.00,WUHU216HW,2013-07-27 12:40:00,
2013-07-27 05:41:00,50.6,46.2,29.56,North,0,0.0,0.0,85,0.00,,,0.00,WUHU216HW,2013-07-27 12:41:00,
2013-07-27 05:44:00,50.4,46.0,29.56,North,0,0.0,0.0,85,0.00,,,0.00,WUHU216HW,2013-07-27 12:44:00,
2013-07-27 05:45:00,50.4,46.0,29.57,North,0,0.0,0.0,85,0.00,,,0.00,WUHU216HW,2013-07-27 12:45:00,
2013-07-27 05:47:00,50.4,46.0,29.57,North,0,0.0,0.0,85,0.00,,,0.00,WUHU216HW,2013-07-27 12:47:00,
2013-07-27 05:49:00,50.4,46.0,29.57,North,0,0.0,0.0,85,0.00,,,0.00,WUHU216HW,2013-07-27 12:49:00,
2013-07-27 05:50:00,50.4,46.0,29.57,North,0,0.0,0.0,85,0.00,,,0.00,WUHU216HW,2013-07-27 12:50:00,
2013-07-27 05:52:00,50.4,46.3,29.56,North,0,0.0,0.0,86,0.00,,,0.00,WUHU216HW,2013-07-27 12:52:00,
2013-07-27 05:55:00,50.2,45.8,29.57,North,0,0.0,0.0,85,0.00,,,0.00,WUHU216HW,2013-07-27 12:55:00,
2013-07-27 05:57:00,50.2,45.8,29.56,North,0,0.0,0.0,85,0.00,,,0.00,WUHU216HW,2013-07-27 12:57:00,
2013-07-27 06:00:00,50.0,45.6,29.56,North,0,0.0,0.0,85,0.00,,,0.00,WUHU216HW,2013-07-27 13:00:00,
2013-07-27 06:02:00,50.0,45.6,29.56,North,0,0.0,0.0,85,0.00,,,0.00,WUHU216HW,2013-07-27 13:02:00,
2013-07-27 06:05:00,50.0,45.6,29.56,North,0,0.0,0.0,85,0.00,,,0.00,WUHU216HW,2013-07-27 13:05:00,
2013-07-27 06:06:00,50.0,45.6,29.56,North,0,0.0,0.0,85,0.00,,,0.00,WUHU216HW,2013-07-27 13:06:00,
2013-07-27 06:07:00,50.0,45.6,29.57,North,0,0.0,0.0,85,0.00,,,0.00,WUHU216HW,2013-07-27 13:07:00,
2013-07-27 06:08:00,50.0,45.6,29.57,North,0,0.0,0.0,85,0.00,,,0.00,WUHU216HW,2013-07-27 13:08:00,
2013-07-27 06:10:00,49.9,45.8,29.57,North,0,0.0,0.0,86,0.00,,,0.00,WUHU216HW,2013-07-27 13:10:00,
2013-07-27 06:11:00,49.9,45.8,29.57,North,0,0.0,0.0,86,0.00,,,0.00,WUHU216HW,2013-07-27 13:11:00,
2013-07-27 06:13:00,49.9,45.8,29.57,North,0,0.0,0.0,86,0.00,,,0.00,WUHU216HW,2013-07-27 13:13:00,
2013-07-27 06:15:00,49.7,45.6,29.57,North,0,0.0,0.0,86,0.00,,,0.00,WUHU216HW,2013-07-27 13:15:00,
2013-07-27 06:16:00,49.7,45.6,29.57,North,0,0.0,0.0,86,0.00,,,0.00,WUHU216HW,2013-07-27 13:16:00,
2013-07-27 06:18:00,49.7,45.6,29.57,North,0,0.0,0.0,86,0.00,,,0.00,WUHU216HW,2013-07-27 13:18:00,
2013-07-27 06:20:00,49.7,45.6,29.57,North,0,0.0,0.0,86,0.00,,,0.00,WUHU216HW,2013-07-27 13:20:00,
2013-07-27 06:21:00,49.7,45.6,29.57,North,0,0.0,0.0,86,0.00,,,0.00,WUHU216HW,2013-07-27 13:21:00,
2013-07-27 06:23:00,49.7,45.6,29.57,North,0,0.0,0.0,86,0.00,,,0.00,WUHU216HW,2013-07-27 13:23:00,
2013-07-27 06:24:00,49.7,45.6,29.57,North,0,0.0,0.0,86,0.00,,,0.00,WUHU216HW,2013-07-27 13:24:00,
2013-07-27 06:26:00,49.7,45.6,29.57,North,0,0.0,0.0,86,0.00,,,0.00,WUHU216HW,2013-07-27 13:26:00,
2013-07-27 06:27:00,49.7,45.6,29.57,North,0,0.0,0.0,86,0.00,,,0.00,WUHU216HW,2013-07-27 13:27:00,
2013-07-27 06:28:00,49.7,45.6,29.57,North,0,0.0,0.0,86,0.00,,,0.00,WUHU216HW,2013-07-27 13:28:00,
2013-07-27 06:29:00,49.7,45.6,29.57,North,0,0.0,0.0,86,0.00,,,0.00,WUHU216HW,2013-07-27 13:29:00,
2013-07-27 06:31:00,49.7,45.6,29.57,North,0,0.0,0.0,86,0.00,,,0.00,WUHU216HW,2013-07-27 13:31:00,
2013-07-27 06:32:00,49.9,45.8,29.57,North,0,0.0,0.0,86,0.00,,,0.00,WUHU216HW,2013-07-27 13:32:00,
2013-07-27 06:33:00,49.9,45.8,29.57,North,0,0.0,0.0,86,0.00,,,0.00,WUHU216HW,2013-07-27 13:33:00,
2013-07-27 06:34:00,49.9,46.1,29.57,North,0,0.0,0.0,87,0.00,,,0.00,WUHU216HW,2013-07-27 13:34:00,
2013-07-27 06:37:00,49.9,46.1,29.57,North,0,0.0,0.0,87,0.00,,,0.00,WUHU216HW,2013-07-27 13:37:00,
2013-07-27 06:39:00,49.9,46.1,29.57,North,0,0.0,0.0,87,0.00,,,0.00,WUHU216HW,2013-07-27 13:39:00,
2013-07-27 06:40:00,50.0,45.9,29.57,North,0,0.0,0.0,86,0.00,,,0.00,WUHU216HW,2013-07-27 13:40:00,
2013-07-27 06:42:00,50.0,46.3,29.57,North,0,0.0,0.0,87,0.00,,,0.00,WUHU216HW,2013-07-27 13:42:00,
2013-07-27 06:43:00,49.9,46.1,29.57,North,0,0.0,0.0,87,0.00,,,0.00,WUHU216HW,2013-07-27 13:43:00,
2013-07-27 06:44:00,49.9,46.1,29.57,North,0,0.0,0.0,87,0.00,,,0.00,WUHU216HW,2013-07-27 13:44:00,
2013-07-27 06:45:00,49.9,46.1,29.57,North,0,0.0,0.0,87,0.00,,,0.00,WUHU216HW,2013-07-27 13:45:00,
2013-07-27 06:47:00,50.0,46.3,29.57,North,0,0.0,0.0,87,0.00,,,0.00,WUHU216HW,2013-07-27 13:47:00,
2013-07-27 06:48:00,50.0,46.3,29.57,North,0,0.0,0.0,87,0.00,,,0.00,WUHU216HW,2013-07-27 13:48:00,
2013-07-27 06:49:00,50.0,45.9,29.57,North,0,0.0,0.0,86,0.00,,,0.00,WUHU216HW,2013-07-27 13:49:00,
2013-07-27 06:50:00,50.0,45.9,29.57,North,0,0.0,0.0,86,0.00,,,0.00,WUHU216HW,2013-07-27 13:50:00,
2013-07-27 06:52:00,50.0,45.9,29.57,North,0,0.0,0.0,86,0.00,,,0.00,WUHU216HW,2013-07-27 13:52:00,
2013-07-27 06:53:00,50.0,46.3,29.57,North,0,0.0,0.0,87,0.00,,,0.00,WUHU216HW,2013-07-27 13:53:00,
2013-07-27 06:54:00,50.2,46.5,29.57,North,0,0.0,0.0,87,0.00,,,0.00,WUHU216HW,2013-07-27 13:54:00,
2013-07-27 06:55:00,50.2,46.5,29.57,North,0,0.0,0.0,87,0.00,,,0.00,WUHU216HW,2013-07-27 13:55:00,
2013-07-27 06:57:00,50.2,46.5,29.57,North,0,0.0,0.0,87,0.00,,,0.00,WUHU216HW,2013-07-27 13:57:00,
2013-07-27 06:58:00,50.4,46.6,29.57,North,0,0.0,0.0,87,0.00,,,0.00,WUHU216HW,2013-07-27 13:58:00,
2013-07-27 06:59:00,50.4,46.6,29.57,North,0,0.0,0.0,87,0.00,,,0.00,WUHU216HW,2013-07-27 13:59:00,
2013-07-27 07:00:00,50.6,47.1,29.57,North,0,0.0,0.0,88,0.00,,,0.00,WUHU216HW,2013-07-27 14:00:00,
2013-07-27 07:02:00,50.8,47.0,29.58,North,0,0.0,0.0,87,0.00,,,0.00,WUHU216HW,2013-07-27 14:02:00,
2013-07-27 07:03:00,50.8,47.0,29.58,North,0,0.0,0.0,87,0.00,,,0.00,WUHU216HW,2013-07-27 14:03:00,
2013-07-27 07:04:00,50.8,47.0,29.58,North,0,0.0,0.0,87,0.00,,,0.00,WUHU216HW,2013-07-27 14:04:00,
2013-07-27 07:06:00,50.8,47.3,29.58,North,0,0.0,0.0,88,0.00,,,0.00,WUHU216HW,2013-07-27 14:06:00,
2013-07-27 07:07:00,50.9,47.4,29.58,North,0,0.0,0.0,88,0.00,,,0.00,WUHU216HW,2013-07-27 14:07:00,
2013-07-27 07:08:00,50.9,47.4,29.58,North,0,0.0,0.0,88,0.00,,,0.00,WUHU216HW,2013-07-27 14:08:00,
2013-07-27 07:09:00,50.9,47.4,29.58,North,0,0.0,0.0,88,0.00,,,0.00,WUHU216HW,2013-07-27 14:09:00,
2013-07-27 07:12:00,51.1,48.0,29.58,North,0,0.0,0.0,89,0.00,,,0.00,WUHU216HW,2013-07-27 14:12:00,
2013-07-27 07:13:00,51.3,48.2,29.58,North,0,0.0,0.0,89,0.00,,,0.00,WUHU216HW,2013-07-27 14:13:00,
2013-07-27 07:14:00,51.3,48.2,29.58,North,0,0.0,0.0,89,0.00,,,0.00,WUHU216HW,2013-07-27 14:14:00,
2013-07-27 07:17:00,51.7,48.5,29.58,North,0,0.0,0.0,89,0.00,,,0.00,WUHU216HW,2013-07-27 14:17:00,
2013-07-27 07:18:00,51.8,48.7,29.58,North,0,0.0,0.0,89,0.00,,,0.00,WUHU216HW,2013-07-27 14:18:00,
2013-07-27 07:19:00,51.8,48.7,29.58,North,0,0.0,0.0,89,0.00,,,0.00,WUHU216HW,2013-07-27 14:19:00,
2013-07-27 07:20:00,52.0,48.9,29.58,North,0,0.0,0.0,89,0.00,,,0.00,WUHU216HW,2013-07-27 14:20:00,
2013-07-27 07:22:00,52.2,49.1,29.58,North,0,0.0,0.0,89,0.00,,,0.00,WUHU216HW,2013-07-27 14:22:00,
2013-07-27 07:23:00,52.2,49.1,29.58,North,0,0.0,0.0,89,0.00,,,0.00,WUHU216HW,2013-07-27 14:23:00,
2013-07-27 07:24:00,52.6,49.4,29.58,North,0,0.0,0.0,89,0.00,,,0.00,WUHU216HW,2013-07-27 14:24:00,
2013-07-27 07:25:00,52.6,49.4,29.58,North,0,0.0,0.0,89,0.00,,,0.00,WUHU216HW,2013-07-27 14:25:00,
2013-07-27 07:27:00,53.1,50.0,29.58,North,0,0.0,0.0,89,0.00,,,0.00,WUHU216HW,2013-07-27 14:27:00,
2013-07-27 07:28:00,53.1,50.0,29.58,North,0,0.0,0.0,89,0.00,,,0.00,WUHU216HW,2013-07-27 14:28:00,
2013-07-27 07:29:00,53.1,50.0,29.58,North,0,0.0,0.0,89,0.00,,,0.00,WUHU216HW,2013-07-27 14:29:00,
2013-07-27 07:30:00,53.1,50.0,29.58,North,0,0.0,0.0,89,0.00,,,0.00,WUHU216HW,2013-07-27 14:30:00,
2013-07-27 07:33:00,53.5,50.0,29.58,North,0,0.0,0.0,88,0.00,,,0.00,WUHU216HW,2013-07-27 14:33:00,
2013-07-27 07:34:00,53.6,50.1,29.58,North,0,0.0,0.0,88,0.00,,,0.00,WUHU216HW,2013-07-27 14:34:00,
2013-07-27 07:36:00,53.6,50.1,29.58,North,0,0.0,0.0,88,0.00,,,0.00,WUHU216HW,2013-07-27 14:36:00,
2013-07-27 07:38:00,53.8,50.1,29.58,North,0,0.0,0.0,87,0.00,,,0.00,WUHU216HW,2013-07-27 14:38:00,
2013-07-27 07:39:00,53.8,50.1,29.58,North,0,0.0,0.0,87,0.00,,,0.00,WUHU216HW,2013-07-27 14:39:00,
2013-07-27 07:40:00,53.8,50.1,29.58,North,0,0.0,0.0,87,0.00,,,0.00,WUHU216HW,2013-07-27 14:40:00,
2013-07-27 07:41:00,53.8,50.1,29.58,North,0,0.0,0.0,87,0.00,,,0.00,WUHU216HW,2013-07-27 14:41:00,
2013-07-27 07:43:00,54.0,50.2,29.58,North,0,0.0,0.0,87,0.00,,,0.00,WUHU216HW,2013-07-27 14:43:00,
2013-07-27 07:44:00,54.0,50.2,29.58,North,0,0.0,0.0,87,0.00,,,0.00,WUHU216HW,2013-07-27 14:44:00,
2013-07-27 07:46:00,54.0,49.9,29.58,North,0,0.0,0.0,86,0.00,,,0.00,WUHU216HW,2013-07-27 14:46:00,
2013-07-27 07:47:00,54.0,49.9,29.58,North,0,0.0,0.0,86,0.00,,,0.00,WUHU216HW,2013-07-27 14:47:00,
2013-07-27 07:48:00,54.0,49.9,29.58,North,0,0.0,0.0,86,0.00,,,0.00,WUHU216HW,2013-07-27 14:48:00,
2013-07-27 07:49:00,54.0,49.9,29.58,North,0,0.0,0.0,86,0.00,,,0.00,WUHU216HW,2013-07-27 14:49:00,
2013-07-27 07:52:00,54.2,50.0,29.58,North,0,0.0,0.0,86,0.00,,,0.00,WUHU216HW,2013-07-27 14:52:00,
2013-07-27 07:54:00,54.4,50.2,29.58,North,0,0.0,0.0,86,0.00,,,0.00,WUHU216HW,2013-07-27 14:54:00,
2013-07-27 07:55:00,54.4,50.2,29.58,North,0,0.0,0.0,86,0.00,,,0.00,WUHU216HW,2013-07-27 14:55:00,
2013-07-27 07:57:00,54.4,50.2,29.58,North,0,0.0,0.0,86,0.00,,,0.00,WUHU216HW,2013-07-27 14:57:00,
2013-07-27 07:59:00,54.4,50.2,29.58,North,0,0.0,0.0,86,0.00,,,0.00,WUHU216HW,2013-07-27 14:59:00,
2013-07-27 08:00:00,54.4,50.2,29.58,North,0,0.0,0.0,86,0.00,,,0.00,WUHU216HW,2013-07-27 15:00:00,
2013-07-27 08:02:00,54.4,50.0,29.58,North,0,0.0,0.0,85,0.00,,,0.00,WUHU216HW,2013-07-27 15:02:00,
2013-07-27 08:04:00,54.4,50.0,29.58,North,0,0.0,0.0,85,0.00,,,0.00,WUHU216HW,2013-07-27 15:04:00,
2013-07-27 08:05:00,54.4,50.0,29.58,North,0,0.0,0.0,85,0.00,,,0.00,WUHU216HW,2013-07-27 15:05:00,
2013-07-27 08:07:00,54.4,50.0,29.58,North,0,0.0,0.0,85,0.00,,,0.00,WUHU216HW,2013-07-27 15:07:00,
2013-07-27 08:08:00,54.4,50.0,29.58,North,0,0.0,0.0,85,0.00,,,0.00,WUHU216HW,2013-07-27 15:08:00,
2013-07-27 08:10:00,54.4,50.0,29.58,North,0,0.0,0.0,85,0.00,,,0.00,WUHU216HW,2013-07-27 15:10:00,
2013-07-27 08:13:00,54.4,50.0,29.58,North,0,0.0,0.0,85,0.00,,,0.00,WUHU216HW,2013-07-27 15:13:00,
2013-07-27 08:14:00,54.4,50.0,29.58,North,0,0.0,0.0,85,0.00,,,0.00,WUHU216HW,2013-07-27 15:14:00,
2013-07-27 08:15:00,54.4,50.0,29.58,North,0,0.0,0.0,85,0.00,,,0.00,WUHU216HW,2013-07-27 15:15:00,
2013-07-27 08:18:00,54.4,50.0,29.58,North,0,0.0,0.0,85,0.00,,,0.00,WUHU216HW,2013-07-27 15:18:00,
2013-07-27 08:19:00,54.4,49.6,29.58,North,0,0.0,0.0,84,0.00,,,0.00,WUHU216HW,2013-07-27 15:19:00,
2013-07-27 08:20:00,54.4,49.6,29.58,North,0,0.0,0.0,84,0.00,,,0.00,WUHU216HW,2013-07-27 15:20:00,
2013-07-27 08:21:00,54.4,50.0,29.58,North,0,0.0,0.0,85,0.00,,,0.00,WUHU216HW,2013-07-27 15:21:00,
2013-07-27 08:23:00,54.4,49.6,29.58,North,0,0.0,0.0,84,0.00,,,0.00,WUHU216HW,2013-07-27 15:23:00,
2013-07-27 08:24:00,54.4,49.6,29.58,North,0,0.0,0.0,84,0.00,,,0.00,WUHU216HW,2013-07-27 15:24:00,
2013-07-27 08:25:00,54.4,49.6,29.58,North,0,0.0,0.0,84,0.00,,,0.00,WUHU216HW,2013-07-27 15:25:00,
2013-07-27 08:27:00,54.4,49.6,29.58,North,0,0.0,0.0,84,0.00,,,0.00,WUHU216HW,2013-07-27 15:27:00,
2013-07-27 08:28:00,54.5,49.8,29.58,North,0,0.0,0.0,84,0.00,,,0.00,WUHU216HW,2013-07-27 15:28:00,
2013-07-27 08:29:00,54.5,49.8,29.58,North,0,0.0,0.0,84,0.00,,,0.00,WUHU216HW,2013-07-27 15:29:00,
2013-07-27 08:30:00,54.5,49.8,29.58,North,0,0.0,0.0,84,0.00,,,0.00,WUHU216HW,2013-07-27 15:30:00,
2013-07-27 08:32:00,54.7,50.0,29.58,North,0,0.0,0.0,84,0.00,,,0.00,WUHU216HW,2013-07-27 15:32:00,
2013-07-27 08:34:00,54.7,50.0,29.58,North,0,0.0,0.0,84,0.00,,,0.00,WUHU216HW,2013-07-27 15:34:00,
2013-07-27 08:35:00,54.7,50.0,29.58,North,0,0.0,0.0,84,0.00,,,0.00,WUHU216HW,2013-07-27 15:35:00,
2013-07-27 08:36:00,54.7,50.0,29.58,North,0,0.0,0.0,84,0.00,,,0.00,WUHU216HW,2013-07-27 15:36:00,
2013-07-27 08:37:00,54.9,50.1,29.59,North,0,0.0,0.0,84,0.00,,,0.00,WUHU216HW,2013-07-27 15:37:00,
2013-07-27 08:39:00,54.9,50.1,29.58,North,0,0.0,0.0,84,0.00,,,0.00,WUHU216HW,2013-07-27 15:39:00,
2013-07-27 08:40:00,54.9,50.1,29.59,North,0,0.0,0.0,84,0.00,,,0.00,WUHU216HW,2013-07-27 15:40:00,
2013-07-27 08:41:00,55.1,50.3,29.59,North,0,0.0,0.0,84,0.00,,,0.00,WUHU216HW,2013-07-27 15:41:00,
2013-07-27 08:43:00,55.1,50.3,29.59,North,0,0.0,0.0,84,0.00,,,0.00,WUHU216HW,2013-07-27 15:43:00,
2013-07-27 08:44:00,55.1,50.3,29.59,North,0,0.0,0.0,84,0.00,,,0.00,WUHU216HW,2013-07-27 15:44:00,
2013-07-27 08:45:00,55.1,50.3,29.59,North,0,0.0,0.0,84,0.00,,,0.00,WUHU216HW,2013-07-27 15:45:00,
2013-07-27 08:46:00,55.1,50.3,29.59,North,0,0.0,0.0,84,0.00,,,0.00,WUHU216HW,2013-07-27 15:46:00,
2013-07-27 08:47:00,55.1,50.3,29.59,North,0,0.0,0.0,84,0.00,,,0.00,WUHU216HW,2013-07-27 15:47:00,
2013-07-27 08:48:00,55.1,50.0,29.58,North,0,0.0,0.0,83,0.00,,,0.00,WUHU216HW,2013-07-27 15:48:00,
2013-07-27 08:49:00,55.3,50.1,29.59,North,0,0.0,0.0,83,0.00,,,0.00,WUHU216HW,2013-07-27 15:49:00,
2013-07-27 08:50:00,55.3,50.1,29.59,North,0,0.0,0.0,83,0.00,,,0.00,WUHU216HW,2013-07-27 15:50:00,
2013-07-27 08:51:00,55.1,50.0,29.59,North,0,0.0,0.0,83,0.00,,,0.00,WUHU216HW,2013-07-27 15:51:00,
2013-07-27 08:52:00,55.3,50.1,29.59,North,0,0.0,0.0,83,0.00,,,0.00,WUHU216HW,2013-07-27 15:52:00,
2013-07-27 08:53:00,55.3,50.1,29.59,North,0,0.0,0.0,83,0.00,,,0.00,WUHU216HW,2013-07-27 15:53:00,
2013-07-27 08:54:00,55.4,50.3,29.59,North,0,0.0,0.0,83,0.00,,,0.00,WUHU216HW,2013-07-27 15:54:00,
2013-07-27 08:55:00,55.4,50.3,29.59,North,0,0.0,0.0,83,0.00,,,0.00,WUHU216HW,2013-07-27 15:55:00,
2013-07-27 08:56:00,55.3,50.1,29.59,North,0,0.0,0.0,83,0.00,,,0.00,WUHU216HW,2013-07-27 15:56:00,
2013-07-27 08:57:00,55.4,50.3,29.59,North,0,0.0,0.0,83,0.00,,,0.00,WUHU216HW,2013-07-27 15:57:00,
2013-07-27 08:58:00,55.4,50.3,29.59,North,0,0.0,0.0,83,0.00,,,0.00,WUHU216HW,2013-07-27 15:58:00,
2013-07-27 08:59:00,55.4,50.3,29.59,North,0,0.0,0.0,83,0.00,,,0.00,WUHU216HW,2013-07-27 15:59:00,
2013-07-27 09:00:00,55.4,50.3,29.59,North,0,0.0,0.0,83,0.00,,,0.00,WUHU216HW,2013-07-27 16:00:00,
2013-07-27 09:01:00,55.4,50.0,29.59,North,0,0.0,0.0,82,0.00,,,0.00,WUHU216HW,2013-07-27 16:01:00,
2013-07-27 09:02:00,55.4,50.0,29.59,North,0,0.0,0.0,82,0.00,,,0.00,WUHU216HW,2013-07-27 16:02:00,
2013-07-27 09:03:00,55.4,50.0,29.59,North,0,0.0,0.0,82,0.00,,,0.00,WUHU216HW,2013-07-27 16:03:00,
2013-07-27 09:05:00,55.6,50.1,29.59,North,0,0.0,0.0,82,0.00,,,0.00,WUHU216HW,2013-07-27 16:05:00,
2013-07-27 09:07:00,55.6,50.1,29.59,North,0,0.0,0.0,82,0.00,,,0.00,WUHU216HW,2013-07-27 16:07:00,
2013-07-27 09:08:00,55.6,50.1,29.59,North,0,0.0,0.0,82,0.00,,,0.00,WUHU216HW,2013-07-27 16:08:00,
2013-07-27 09:10:00,55.8,50.3,29.59,North,0,0.0,0.0,82,0.00,,,0.00,WUHU216HW,2013-07-27 16:10:00,
2013-07-27 09:12:00,55.8,50.3,29.59,North,0,0.0,0.0,82,0.00,,,0.00,WUHU216HW,2013-07-27 16:12:00,
2013-07-27 09:13:00,55.8,50.3,29.59,North,0,0.0,0.0,82,0.00,,,0.00,WUHU216HW,2013-07-27 16:13:00,
2013-07-27 09:16:00,55.8,50.3,29.59,North,0,0.0,0.0,82,0.00,,,0.00,WUHU216HW,2013-07-27 16:16:00,
2013-07-27 09:17:00,55.8,50.3,29.59,North,0,0.0,0.0,82,0.00,,,0.00,WUHU216HW,2013-07-27 16:17:00,
2013-07-27 09:18:00,55.8,50.3,29.59,North,0,0.0,0.0,82,0.00,,,0.00,WUHU216HW,2013-07-27 16:18:00,
2013-07-27 09:19:00,56.0,50.5,29.59,North,0,0.0,0.0,82,0.00,,,0.00,WUHU216HW,2013-07-27 16:19:00,
2013-07-27 09:21:00,56.2,50.7,29.59,North,0,0.0,0.0,82,0.00,,,0.00,WUHU216HW,2013-07-27 16:21:00,
2013-07-27 09:22:00,56.2,50.7,29.59,North,0,0.0,0.0,82,0.00,,,0.00,WUHU216HW,2013-07-27 16:22:00,
2013-07-27 09:23:00,56.2,50.7,29.59,North,0,0.0,0.0,82,0.00,,,0.00,WUHU216HW,2013-07-27 16:23:00,
2013-07-27 09:24:00,56.2,50.7,29.59,North,0,0.0,0.0,82,0.00,,,0.00,WUHU216HW,2013-07-27 16:24:00,
2013-07-27 09:26:00,56.3,50.9,29.59,North,0,0.0,0.0,82,0.00,,,0.00,WUHU216HW,2013-07-27 16:26:00,
2013-07-27 09:27:00,56.5,51.0,29.59,North,0,0.0,0.0,82,0.00,,,0.00,WUHU216HW,2013-07-27 16:27:00,
2013-07-27 09:28:00,56.5,51.0,29.59,North,0,0.0,0.0,82,0.00,,,0.00,WUHU216HW,2013-07-27 16:28:00,
2013-07-27 09:29:00,56.5,51.0,29.59,North,0,0.0,0.0,82,0.00,,,0.00,WUHU216HW,2013-07-27 16:29:00,
2013-07-27 09:32:00,56.5,51.0,29.59,North,0,0.0,0.0,82,0.00,,,0.00,WUHU216HW,2013-07-27 16:32:00,
2013-07-27 09:33:00,56.5,51.0,29.59,North,0,0.0,0.0,82,0.00,,,0.00,WUHU216HW,2013-07-27 16:33:00,
2013-07-27 09:34:00,56.5,51.0,29.59,North,0,0.0,0.0,82,0.00,,,0.00,WUHU216HW,2013-07-27 16:34:00,
2013-07-27 09:37:00,56.5,51.0,29.59,North,0,0.0,0.0,82,0.00,,,0.00,WUHU216HW,2013-07-27 16:37:00,
2013-07-27 09:38:00,56.5,51.0,29.59,North,0,0.0,0.0,82,0.00,,,0.00,WUHU216HW,2013-07-27 16:38:00,
2013-07-27 09:39:00,56.7,51.2,29.59,North,0,0.0,0.0,82,0.00,,,0.00,WUHU216HW,2013-07-27 16:39:00,
2013-07-27 09:42:00,56.9,51.4,29.59,North,0,0.0,0.0,82,0.00,,,0.00,WUHU216HW,2013-07-27 16:42:00,
2013-07-27 09:43:00,56.9,51.4,29.59,North,0,0.0,0.0,82,0.00,,,0.00,WUHU216HW,2013-07-27 16:43:00,
2013-07-27 09:44:00,57.1,51.6,29.59,North,0,0.0,0.0,82,0.00,,,0.00,WUHU216HW,2013-07-27 16:44:00,
2013-07-27 09:45:00,57.1,51.6,29.59,North,0,0.0,0.0,82,0.00,,,0.00,WUHU216HW,2013-07-27 16:45:00,
2013-07-27 09:48:00,57.2,51.5,29.58,North,0,0.0,0.0,81,0.00,,,0.00,WUHU216HW,2013-07-27 16:48:00,
2013-07-27 09:49:00,57.2,51.5,29.58,North,0,0.0,0.0,81,0.00,,,0.00,WUHU216HW,2013-07-27 16:49:00,
2013-07-27 09:50:00,57.4,51.7,29.58,North,0,0.0,0.0,81,0.00,,,0.00,WUHU216HW,2013-07-27 16:50:00,
2013-07-27 09:53:00,57.6,51.9,29.58,North,0,0.0,0.0,81,0.00,,,0.00,WUHU216HW,2013-07-27 16:53:00,
2013-07-27 09:54:00,57.8,52.0,29.58,North,0,0.0,0.0,81,0.00,,,0.00,WUHU216HW,2013-07-27 16:54:00,
2013-07-27 09:55:00,58.0,52.2,29.58,North,0,0.0,0.0,81,0.00,,,0.00,WUHU216HW,2013-07-27 16:55:00,
2013-07-27 09:58:00,58.0,51.8,29.58,North,0,0.0,0.0,80,0.00,,,0.00,WUHU216HW,2013-07-27 16:58:00,
2013-07-27 09:59:00,58.1,52.0,29.58,North,0,0.0,0.0,80,0.00,,,0.00,WUHU216HW,2013-07-27 16:59:00,
2013-07-27 10:00:00,58.1,52.0,29.58,North,0,0.0,0.0,80,0.00,,,0.00,WUHU216HW,2013-07-27 17:00:00,
2013-07-27 10:03:00,58.3,52.2,29.58,North,0,0.0,0.0,80,0.00,,,0.00,WUHU216HW,2013-07-27 17:03:00,
2013-07-27 10:04:00,58.3,51.8,29.58,North,0,0.0,0.0,79,0.00,,,0.00,WUHU216HW,2013-07-27 17:04:00,
2013-07-27 10:05:00,58.5,52.0,29.58,North,0,0.0,0.0,79,0.00,,,0.00,WUHU216HW,2013-07-27 17:05:00,
2013-07-27 10:08:00,58.7,52.2,29.58,North,0,0.0,0.0,79,0.00,,,0.00,WUHU216HW,2013-07-27 17:08:00,
2013-07-27 10:09:00,58.9,52.4,29.58,North,0,0.0,0.0,79,0.00,,,0.00,WUHU216HW,2013-07-27 17:09:00,
2013-07-27 10:10:00,58.9,52.4,29.58,North,0,0.0,0.0,79,0.00,,,0.00,WUHU216HW,2013-07-27 17:10:00,
2013-07-27 10:11:00,59.0,52.6,29.58,North,0,0.0,0.0,79,0.00,,,0.00,WUHU216HW,2013-07-27 17:11:00,
2013-07-27 10:14:00,59.2,52.7,29.58,North,0,0.0,0.0,79,0.00,,,0.00,WUHU216HW,2013-07-27 17:14:00,
2013-07-27 10:15:00,59.4,52.6,29.58,North,0,0.0,0.0,78,0.00,,,0.00,WUHU216HW,2013-07-27 17:15:00,
2013-07-27 10:17:00,59.6,52.7,29.58,North,0,0.0,0.0,78,0.00,,,0.00,WUHU216HW,2013-07-27 17:17:00,
2013-07-27 10:19:00,59.6,52.4,29.58,North,0,0.0,0.0,77,0.00,,,0.00,WUHU216HW,2013-07-27 17:19:00,
2013-07-27 10:20:00,59.6,52.4,29.58,North,0,0.0,0.0,77,0.00,,,0.00,WUHU216HW,2013-07-27 17:20:00,
2013-07-27 10:21:00,59.8,52.6,29.58,North,0,0.0,0.0,77,0.00,,,0.00,WUHU216HW,2013-07-27 17:21:00,
2013-07-27 10:22:00,59.8,52.6,29.58,North,0,0.0,0.0,77,0.00,,,0.00,WUHU216HW,2013-07-27 17:22:00,
2013-07-27 10:24:00,59.6,52.7,29.58,North,0,0.0,0.0,78,0.00,,,0.00,WUHU216HW,2013-07-27 17:24:00,
2013-07-27 10:25:00,59.8,52.9,29.58,North,0,0.0,0.0,78,0.00,,,0.00,WUHU216HW,2013-07-27 17:25:00,
2013-07-27 10:26:00,59.8,52.6,29.58,North,0,0.0,0.0,77,0.00,,,0.00,WUHU216HW,2013-07-27 17:26:00,
2013-07-27 10:27:00,59.8,52.6,29.58,North,0,0.0,0.0,77,0.00,,,0.00,WUHU216HW,2013-07-27 17:27:00,
2013-07-27 10:29:00,59.8,52.6,29.58,North,0,0.0,0.0,77,0.00,,,0.00,WUHU216HW,2013-07-27 17:29:00,
2013-07-27 10:30:00,59.8,52.6,29.58,North,0,0.0,0.0,77,0.00,,,0.00,WUHU216HW,2013-07-27 17:30:00,
2013-07-27 10:32:00,59.8,52.6,29.58,North,0,0.0,0.0,77,0.00,,,0.00,WUHU216HW,2013-07-27 17:32:00,
2013-07-27 10:35:00,59.9,52.7,29.58,North,0,0.0,0.0,77,0.00,,,0.00,WUHU216HW,2013-07-27 17:35:00,
2013-07-27 10:37:00,59.9,52.4,29.58,North,0,0.0,0.0,76,0.00,,,0.00,WUHU216HW,2013-07-27 17:37:00,
2013-07-27 10:40:00,59.9,52.7,29.58,North,0,0.0,0.0,77,0.00,,,0.00,WUHU216HW,2013-07-27 17:40:00,
2013-07-27 10:42:00,59.9,53.1,29.58,North,0,0.0,0.0,78,0.00,,,0.00,WUHU216HW,2013-07-27 17:42:00,
2013-07-27 10:45:00,60.1,52.9,29.58,North,0,0.0,0.0,77,0.00,,,0.00,WUHU216HW,2013-07-27 17:45:00,
2013-07-27 10:46:00,60.1,52.9,29.58,North,0,0.0,0.0,77,0.00,,,0.00,WUHU216HW,2013-07-27 17:46:00,
2013-07-27 10:47:00,60.1,52.9,29.58,North,0,0.0,0.0,77,0.00,,,0.00,WUHU216HW,2013-07-27 17:47:00,
2013-07-27 10:48:00,60.1,52.9,29.58,North,0,0.0,0.0,77,0.00,,,0.00,WUHU216HW,2013-07-27 17:48:00,
2013-07-27 10:50:00,60.1,53.3,29.58,North,0,0.0,0.0,78,0.00,,,0.00,WUHU216HW,2013-07-27 17:50:00,
2013-07-27 10:51:00,60.1,53.3,29.58,North,0,0.0,0.0,78,0.00,,,0.00,WUHU216HW,2013-07-27 17:51:00,
2013-07-27 10:52:00,59.9,53.1,29.58,North,0,0.0,0.0,78,0.00,,,0.00,WUHU216HW,2013-07-27 17:52:00,
2013-07-27 10:53:00,60.1,53.3,29.58,North,0,0.0,0.0,78,0.00,,,0.00,WUHU216HW,2013-07-27 17:53:00,
2013-07-27 10:55:00,59.9,53.1,29.57,North,0,0.0,0.0,78,0.00,,,0.00,WUHU216HW,2013-07-27 17:55:00,
2013-07-27 10:56:00,60.1,53.3,29.57,North,0,0.0,0.0,78,0.00,,,0.00,WUHU216HW,2013-07-27 17:56:00,
2013-07-27 10:57:00,60.1,53.3,29.57,North,0,0.0,0.0,78,0.00,,,0.00,WUHU216HW,2013-07-27 17:57:00,
2013-07-27 10:58:00,60.1,53.3,29.57,North,0,0.0,0.0,78,0.00,,,0.00,WUHU216HW,2013-07-27 17:58:00,
2013-07-27 11:01:00,60.5,53.3,29.57,North,0,0.0,0.0,77,0.00,,,0.00,WUHU216HW,2013-07-27 18:01:00,
2013-07-27 11:02:00,60.3,53.1,29.58,North,0,0.0,0.0,77,0.00,,,0.00,WUHU216HW,2013-07-27 18:02:00,
2013-07-27 11:03:00,60.3,53.1,29.58,North,0,0.0,0.0,77,0.00,,,0.00,WUHU216HW,2013-07-27 18:03:00,
2013-07-27 11:06:00,60.5,53.3,29.57,North,0,0.0,0.0,77,0.00,,,0.00,WUHU216HW,2013-07-27 18:06:00,
2013-07-27 11:07:00,60.7,53.1,29.57,North,0,0.0,0.0,76,0.00,,,0.00,WUHU216HW,2013-07-27 18:07:00,
2013-07-27 11:08:00,60.7,53.1,29.57,North,0,0.0,0.0,76,0.00,,,0.00,WUHU216HW,2013-07-27 18:08:00,
2013-07-27 11:11:00,61.0,53.8,29.57,North,0,0.0,0.0,77,0.00,,,0.00,WUHU216HW,2013-07-27 18:11:00,
2013-07-27 11:12:00,61.0,53.8,29.57,North,0,0.0,0.0,77,0.00,,,0.00,WUHU216HW,2013-07-27 18:12:00,
2013-07-27 11:13:00,61.0,53.5,29.57,North,0,0.0,0.0,76,0.00,,,0.00,WUHU216HW,2013-07-27 18:13:00,
2013-07-27 11:17:00,61.6,53.6,29.57,North,0,0.0,0.0,75,0.00,,,0.00,WUHU216HW,2013-07-27 18:17:00,
2013-07-27 11:18:00,61.7,53.7,29.57,North,0,0.0,0.0,75,0.00,,,0.00,WUHU216HW,2013-07-27 18:18:00,
2013-07-27 11:22:00,62.1,53.7,29.57,North,0,0.0,0.0,74,0.00,,,0.00,WUHU216HW,2013-07-27 18:22:00,
2013-07-27 11:23:00,62.1,53.7,29.57,North,0,0.0,0.0,74,0.00,,,0.00,WUHU216HW,2013-07-27 18:23:00,
2013-07-27 11:27:00,62.5,54.0,29.57,North,0,0.0,0.0,74,0.00,,,0.00,WUHU216HW,2013-07-27 18:27:00,
2013-07-27 11:28:00,62.6,54.2,29.57,North,0,0.0,0.0,74,0.00,,,0.00,WUHU216HW,2013-07-27 18:28:00,
2013-07-27 11:29:00,62.8,54.4,29.57,North,0,0.0,0.0,74,0.00,,,0.00,WUHU216HW,2013-07-27 18:29:00,
2013-07-27 11:32:00,63.0,54.5,29.57,North,0,0.0,0.0,74,0.00,,,0.00,WUHU216HW,2013-07-27 18:32:00,
2013-07-27 11:33:00,63.4,54.9,29.57,North,0,0.0,0.0,74,0.00,,,0.00,WUHU216HW,2013-07-27 18:33:00,
2013-07-27 11:34:00,63.2,54.7,29.57,North,0,0.0,0.0,74,0.00,,,0.00,WUHU216HW,2013-07-27 18:34:00,
2013-07-27 11:37:00,63.5,54.4,29.57,North,0,0.0,0.0,72,0.00,,,0.00,WUHU216HW,2013-07-27 18:37:00,
2013-07-27 11:38:00,63.5,54.4,29.57,North,0,0.0,0.0,72,0.00,,,0.00,WUHU216HW,2013-07-27 18:38:00,
2013-07-27 11:39:00,63.7,54.5,29.57,North,0,0.0,0.0,72,0.00,,,0.00,WUHU216HW,2013-07-27 18:39:00,
2013-07-27 11:40:00,63.7,54.9,29.57,North,0,0.0,0.0,73,0.00,,,0.00,WUHU216HW,2013-07-27 18:40:00,
2013-07-27 11:42:00,64.3,55.1,29.57,North,0,0.0,0.0,72,0.00,,,0.00,WUHU216HW,2013-07-27 18:42:00,
2013-07-27 11:43:00,64.3,55.1,29.57,North,0,0.0,0.0,72,0.00,,,0.00,WUHU216HW,2013-07-27 18:43:00,
2013-07-27 11:44:00,64.3,54.7,29.57,North,0,0.0,0.0,71,0.00,,,0.00,WUHU216HW,2013-07-27 18:44:00,
2013-07-27 11:45:00,64.3,55.1,29.57,North,0,0.0,0.0,72,0.00,,,0.00,WUHU216HW,2013-07-27 18:45:00,
2013-07-27 11:48:00,64.6,54.7,29.57,North,0,0.0,0.0,70,0.00,,,0.00,WUHU216HW,2013-07-27 18:48:00,
2013-07-27 11:49:00,64.4,54.5,29.57,North,0,0.0,0.0,70,0.00,,,0.00,WUHU216HW,2013-07-27 18:49:00,
2013-07-27 11:50:00,64.4,54.5,29.57,North,0,0.0,0.0,70,0.00,,,0.00,WUHU216HW,2013-07-27 18:50:00,
2013-07-27 11:53:00,64.4,54.9,29.57,North,0,0.0,0.0,71,0.00,,,0.00,WUHU216HW,2013-07-27 18:53:00,
2013-07-27 11:54:00,64.4,54.5,29.57,North,0,0.0,0.0,70,0.00,,,0.00,WUHU216HW,2013-07-27 18:54:00,
2013-07-27 11:55:00,64.4,54.5,29.57,North,0,0.0,0.0,70,0.00,,,0.00,WUHU216HW,2013-07-27 18:55:00,
2013-07-27 11:58:00,64.4,54.9,29.57,North,0,0.0,0.0,71,0.00,,,0.00,WUHU216HW,2013-07-27 18:58:00,
2013-07-27 11:59:00,64.8,55.3,29.57,North,0,0.0,0.0,71,0.00,,,0.00,WUHU216HW,2013-07-27 18:59:00,
2013-07-27 12:00:00,65.0,55.4,29.57,North,0,0.0,0.0,71,0.00,,,0.00,WUHU216HW,2013-07-27 19:00:00,
2013-07-27 12:03:00,65.7,55.3,29.57,North,0,0.0,0.0,69,0.00,,,0.00,WUHU216HW,2013-07-27 19:03:00,
2013-07-27 12:04:00,65.7,55.3,29.56,North,0,0.0,0.0,69,0.00,,,0.00,WUHU216HW,2013-07-27 19:04:00,
2013-07-27 12:05:00,65.7,55.3,29.56,North,0,0.0,0.0,69,0.00,,,0.00,WUHU216HW,2013-07-27 19:05:00,
2013-07-27 12:08:00,65.5,54.6,29.57,North,0,0.0,0.0,68,0.00,,,0.00,WUHU216HW,2013-07-27 19:08:00,
2013-07-27 12:09:00,65.3,54.9,29.56,North,0,0.0,0.0,69,0.00,,,0.00,WUHU216HW,2013-07-27 19:09:00,
2013-07-27 12:10:00,65.3,54.9,29.56,North,0,0.0,0.0,69,0.00,,,0.00,WUHU216HW,2013-07-27 19:10:00,
2013-07-27 12:11:00,65.3,54.9,29.56,North,0,0.0,0.0,69,0.00,,,0.00,WUHU216HW,2013-07-27 19:11:00,
2013-07-27 12:14:00,65.7,55.7,29.56,North,0,0.0,0.0,70,0.00,,,0.00,WUHU216HW,2013-07-27 19:14:00,
2013-07-27 12:15:00,65.9,55.8,29.56,North,0,0.0,0.0,70,0.00,,,0.00,WUHU216HW,2013-07-27 19:15:00,
2013-07-27 12:16:00,66.1,56.0,29.56,North,0,0.0,0.0,70,0.00,,,0.00,WUHU216HW,2013-07-27 19:16:00,
2013-07-27 12:19:00,66.2,54.9,29.56,North,0,0.0,0.0,67,0.00,,,0.00,WUHU216HW,2013-07-27 19:19:00,
2013-07-27 12:20:00,66.2,55.4,29.56,North,0,0.0,0.0,68,0.00,,,0.00,WUHU216HW,2013-07-27 19:20:00,
2013-07-27 12:22:00,66.1,54.7,29.56,North,0,0.0,0.0,67,0.00,,,0.00,WUHU216HW,2013-07-27 19:22:00,
2013-07-27 12:24:00,66.1,55.2,29.55,North,0,0.0,0.0,68,0.00,,,0.00,WUHU216HW,2013-07-27 19:24:00,
2013-07-27 12:25:00,66.1,55.2,29.55,North,0,0.0,0.0,68,0.00,,,0.00,WUHU216HW,2013-07-27 19:25:00,
2013-07-27 12:27:00,66.6,56.5,29.55,North,0,0.0,0.0,70,0.00,,,0.00,WUHU216HW,2013-07-27 19:27:00,
2013-07-27 12:30:00,67.7,57.2,29.55,North,0,0.0,0.0,69,0.00,,,0.00,WUHU216HW,2013-07-27 19:30:00,
2013-07-27 12:32:00,68.2,56.8,29.55,North,0,0.0,0.0,67,0.00,,,0.00,WUHU216HW,2013-07-27 19:32:00,
2013-07-27 12:35:00,68.4,55.7,29.55,North,0,0.0,0.0,64,0.00,,,0.00,WUHU216HW,2013-07-27 19:35:00,
2013-07-27 12:37:00,68.4,56.2,29.55,North,0,0.0,0.0,65,0.00,,,0.00,WUHU216HW,2013-07-27 19:37:00,
2013-07-27 12:40:00,68.8,56.5,29.55,North,0,0.0,0.0,65,0.00,,,0.00,WUHU216HW,2013-07-27 19:40:00,
2013-07-27 12:41:00,68.8,56.1,29.55,North,0,0.0,0.0,64,0.00,,,0.00,WUHU216HW,2013-07-27 19:41:00,
2013-07-27 12:43:00,68.9,55.8,29.55,North,0,0.0,0.0,63,0.00,,,0.00,WUHU216HW,2013-07-27 19:43:00,
2013-07-27 12:45:00,68.9,56.3,29.55,North,0,0.0,0.0,64,0.00,,,0.00,WUHU216HW,2013-07-27 19:45:00,
2013-07-27 12:46:00,69.1,56.8,29.55,North,0,0.0,0.0,65,0.00,,,0.00,WUHU216HW,2013-07-27 19:46:00,
2013-07-27 12:47:00,69.3,56.6,29.55,North,0,0.0,0.0,64,0.00,,,0.00,WUHU216HW,2013-07-27 19:47:00,
2013-07-27 12:48:00,69.3,56.6,29.55,North,0,0.0,0.0,64,0.00,,,0.00,WUHU216HW,2013-07-27 19:48:00,
2013-07-27 12:50:00,69.5,56.8,29.55,North,0,0.0,0.0,64,0.00,,,0.00,WUHU216HW,2013-07-27 19:50:00,
2013-07-27 12:51:00,69.7,56.9,29.55,North,0,0.0,0.0,64,0.00,,,0.00,WUHU216HW,2013-07-27 19:51:00,
2013-07-27 12:52:00,69.8,56.7,29.55,North,0,0.0,0.0,63,0.00,,,0.00,WUHU216HW,2013-07-27 19:52:00,
2013-07-27 12:53:00,70.0,56.9,29.55,North,0,0.0,0.0,63,0.00,,,0.00,WUHU216HW,2013-07-27 19:53:00,
2013-07-27 12:55:00,70.0,56.4,29.54,North,0,0.0,0.0,62,0.00,,,0.00,WUHU216HW,2013-07-27 19:55:00,
2013-07-27 12:56:00,70.2,56.6,29.54,North,0,0.0,0.0,62,0.00,,,0.00,WUHU216HW,2013-07-27 19:56:00,
2013-07-27 12:57:00,70.2,57.1,29.54,North,0,0.0,0.0,63,0.00,,,0.00,WUHU216HW,2013-07-27 19:57:00,
2013-07-27 12:58:00,70.2,55.8,29.54,North,0,0.0,0.0,60,0.00,,,0.00,WUHU216HW,2013-07-27 19:58:00,
2013-07-27 13:01:00,70.2,56.2,29.54,North,0,0.0,0.0,61,0.00,,,0.00,WUHU216HW,2013-07-27 20:01:00,
2013-07-27 13:02:00,70.2,56.2,29.54,North,0,0.0,0.0,61,0.00,,,0.00,WUHU216HW,2013-07-27 20:02:00,
2013-07-27 13:04:00,70.2,55.8,29.54,North,0,0.0,0.0,60,0.00,,,0.00,WUHU216HW,2013-07-27 20:04:00,
2013-07-27 13:06:00,70.0,55.6,29.54,North,0,0.0,0.0,60,0.00,,,0.00,WUHU216HW,2013-07-27 20:06:00,
2013-07-27 13:07:00,70.0,55.6,29.54,North,0,0.0,0.0,60,0.00,,,0.00,WUHU216HW,2013-07-27 20:07:00,
2013-07-27 13:08:00,70.0,55.1,29.54,North,0,0.0,0.0,59,0.00,,,0.00,WUHU216HW,2013-07-27 20:08:00,
2013-07-27 13:09:00,69.8,54.9,29.54,North,0,0.0,0.0,59,0.00,,,0.00,WUHU216HW,2013-07-27 20:09:00,
2013-07-27 13:11:00,69.8,55.4,29.54,North,0,0.0,0.0,60,0.00,,,0.00,WUHU216HW,2013-07-27 20:11:00,
2013-07-27 13:12:00,70.0,55.6,29.54,North,0,0.0,0.0,60,0.00,,,0.00,WUHU216HW,2013-07-27 20:12:00,
2013-07-27 13:13:00,70.0,55.6,29.54,North,0,0.0,0.0,60,0.00,,,0.00,WUHU216HW,2013-07-27 20:13:00,
2013-07-27 13:14:00,70.0,55.6,29.54,North,0,0.0,0.0,60,0.00,,,0.00,WUHU216HW,2013-07-27 20:14:00,
2013-07-27 13:16:00,70.2,55.8,29.54,North,0,0.0,0.0,60,0.00,,,0.00,WUHU216HW,2013-07-27 20:16:00,
2013-07-27 13:17:00,70.4,54.9,29.54,North,0,0.0,0.0,58,0.00,,,0.00,WUHU216HW,2013-07-27 20:17:00,
2013-07-27 13:18:00,70.2,54.7,29.54,North,0,0.0,0.0,58,0.00,,,0.00,WUHU216HW,2013-07-27 20:18:00,
2013-07-27 13:19:00,70.2,54.7,29.54,North,0,0.0,0.0,58,0.00,,,0.00,WUHU216HW,2013-07-27 20:19:00,
2013-07-27 13:21:00,69.8,55.4,29.54,North,0,0.0,0.0,60,0.00,,,0.00,WUHU216HW,2013-07-27 20:21:00,
2013-07-27 13:22:00,69.8,55.4,29.54,North,0,0.0,0.0,60,0.00,,,0.00,WUHU216HW,2013-07-27 20:22:00,
2013-07-27 13:23:00,70.2,55.8,29.54,North,0,0.0,0.0,60,0.00,,,0.00,WUHU216HW,2013-07-27 20:23:00,
2013-07-27 13:24:00,70.2,55.8,29.54,North,0,0.0,0.0,60,0.00,,,0.00,WUHU216HW,2013-07-27 20:24:00,
2013-07-27 13:26:00,70.4,55.5,29.53,North,0,0.0,0.0,59,0.00,,,0.00,WUHU216HW,2013-07-27 20:26:00,
2013-07-27 13:27:00,70.6,56.1,29.54,North,0,0.0,0.0,60,0.00,,,0.00,WUHU216HW,2013-07-27 20:27:00,
2013-07-27 13:28:00,70.6,56.1,29.54,North,0,0.0,0.0,60,0.00,,,0.00,WUHU216HW,2013-07-27 20:28:00,
2013-07-27 13:29:00,70.9,56.4,29.53,North,0,0.0,0.0,60,0.00,,,0.00,WUHU216HW,2013-07-27 20:29:00,
2013-07-27 13:32:00,71.5,55.9,29.53,North,0,0.0,0.0,58,0.00,,,0.00,WUHU216HW,2013-07-27 20:32:00,
2013-07-27 13:33:00,71.5,56.4,29.53,North,0,0.0,0.0,59,0.00,,,0.00,WUHU216HW,2013-07-27 20:33:00,
2013-07-27 13:34:00,71.6,56.5,29.53,North,0,0.0,0.0,59,0.00,,,0.00,WUHU216HW,2013-07-27 20:34:00,
2013-07-27 13:37:00,71.8,56.7,29.53,North,0,0.0,0.0,59,0.00,,,0.00,WUHU216HW,2013-07-27 20:37:00,
2013-07-27 13:38:00,72.0,57.4,29.53,North,0,0.0,0.0,60,0.00,,,0.00,WUHU216HW,2013-07-27 20:38:00,
2013-07-27 13:39:00,72.2,56.5,29.53,North,0,0.0,0.0,58,0.00,,,0.00,WUHU216HW,2013-07-27 20:39:00,
2013-07-27 13:40:00,72.4,56.2,29.53,North,0,0.0,0.0,57,0.00,,,0.00,WUHU216HW,2013-07-27 20:40:00,
2013-07-27 13:42:00,72.4,55.2,29.53,North,0,0.0,0.0,55,0.00,,,0.00,WUHU216HW,2013-07-27 20:42:00,
2013-07-27 13:43:00,72.5,56.9,29.53,North,0,0.0,0.0,58,0.00,,,0.00,WUHU216HW,2013-07-27 20:43:00,
2013-07-27 13:44:00,72.7,57.1,29.53,North,0,0.0,0.0,58,0.00,,,0.00,WUHU216HW,2013-07-27 20:44:00,
2013-07-27 13:45:00,72.9,57.2,29.53,North,0,0.0,0.0,58,0.00,,,0.00,WUHU216HW,2013-07-27 20:45:00,
2013-07-27 13:47:00,73.1,55.4,29.53,North,0,0.0,0.0,54,0.00,,,0.00,WUHU216HW,2013-07-27 20:47:00,
2013-07-27 13:48:00,73.1,56.3,29.53,North,0,0.0,0.0,56,0.00,,,0.00,WUHU216HW,2013-07-27 20:48:00,
2013-07-27 13:49:00,73.1,54.8,29.53,North,0,0.0,0.0,53,0.00,,,0.00,WUHU216HW,2013-07-27 20:49:00,
2013-07-27 13:50:00,73.1,55.4,29.53,North,0,0.0,0.0,54,0.00,,,0.00,WUHU216HW,2013-07-27 20:50:00,
2013-07-27 13:53:00,73.3,55.5,29.53,North,0,0.0,0.0,54,0.00,,,0.00,WUHU216HW,2013-07-27 20:53:00,
2013-07-27 13:54:00,73.4,56.2,29.53,North,0,0.0,0.0,55,0.00,,,0.00,WUHU216HW,2013-07-27 20:54:00,
2013-07-27 13:55:00,73.4,54.6,29.53,North,0,0.0,0.0,52,0.00,,,0.00,WUHU216HW,2013-07-27 20:55:00,
2013-07-27 13:58:00,74.2,56.3,29.53,North,0,0.0,0.0,54,0.00,,,0.00,WUHU216HW,2013-07-27 20:58:00,
2013-07-27 13:59:00,74.2,55.9,29.53,North,0,0.0,0.0,53,0.00,,,0.00,WUHU216HW,2013-07-27 20:59:00,
2013-07-27 14:00:00,74.3,55.1,29.53,North,0,0.0,0.0,51,0.00,,,0.00,WUHU216HW,2013-07-27 21:00:00,
2013-07-27 14:03:00,74.3,56.1,29.52,North,0,0.0,0.0,53,0.00,,,0.00,WUHU216HW,2013-07-27 21:03:00,
2013-07-27 14:04:00,74.3,56.1,29.52,North,0,0.0,0.0,53,0.00,,,0.00,WUHU216HW,2013-07-27 21:04:00,
2013-07-27 14:06:00,74.2,55.4,29.53,North,0,0.0,0.0,52,0.00,,,0.00,WUHU216HW,2013-07-27 21:06:00,
2013-07-27 14:08:00,74.2,54.9,29.52,North,0,0.0,0.0,51,0.00,,,0.00,WUHU216HW,2013-07-27 21:08:00,
2013-07-27 14:09:00,74.2,54.9,29.52,North,0,0.0,0.0,51,0.00,,,0.00,WUHU216HW,2013-07-27 21:09:00,
2013-07-27 14:12:00,73.6,54.8,29.52,North,0,0.0,0.0,52,0.00,,,0.00,WUHU216HW,2013-07-27 21:12:00,
2013-07-27 14:13:00,73.6,54.4,29.52,North,0,0.0,0.0,51,0.00,,,0.00,WUHU216HW,2013-07-27 21:13:00,
2013-07-27 14:14:00,73.4,54.6,29.52,North,0,0.0,0.0,52,0.00,,,0.00,WUHU216HW,2013-07-27 21:14:00,
2013-07-27 14:17:00,73.1,54.4,29.52,North,0,0.0,0.0,52,0.00,,,0.00,WUHU216HW,2013-07-27 21:17:00,
2013-07-27 14:18:00,73.1,54.4,29.52,North,0,0.0,0.0,52,0.00,,,0.00,WUHU216HW,2013-07-27 21:18:00,
2013-07-27 14:19:00,72.9,54.6,29.52,North,0,0.0,0.0,53,0.00,,,0.00,WUHU216HW,2013-07-27 21:19:00,
2013-07-27 14:20:00,72.7,54.6,29.52,North,0,0.0,0.0,53,0.00,,,0.00,WUHU216HW,2013-07-27 21:20:00,
2013-07-27 14:22:00,73.1,54.8,29.52,North,0,0.0,0.0,53,0.00,,,0.00,WUHU216HW,2013-07-27 21:22:00,
2013-07-27 14:24:00,73.1,54.4,29.52,North,0,0.0,0.0,52,0.00,,,0.00,WUHU216HW,2013-07-27 21:24:00,
2013-07-27 14:25:00,73.1,53.8,29.52,North,0,0.0,0.0,51,0.00,,,0.00,WUHU216HW,2013-07-27 21:25:00,
2013-07-27 14:27:00,73.3,55.0,29.52,North,0,0.0,0.0,53,0.00,,,0.00,WUHU216HW,2013-07-27 21:27:00,
2013-07-27 14:29:00,73.4,55.2,29.52,North,0,0.0,0.0,53,0.00,,,0.00,WUHU216HW,2013-07-27 21:29:00,
2013-07-27 14:30:00,73.4,54.6,29.52,North,0,0.0,0.0,52,0.00,,,0.00,WUHU216HW,2013-07-27 21:30:00,
2013-07-27 14:31:00,73.6,54.8,29.52,North,0,0.0,0.0,52,0.00,,,0.00,WUHU216HW,2013-07-27 21:31:00,
2013-07-27 14:33:00,73.8,54.6,29.52,North,0,0.0,0.0,51,0.00,,,0.00,WUHU216HW,2013-07-27 21:33:00,
2013-07-27 14:34:00,74.0,55.7,29.52,North,0,0.0,0.0,53,0.00,,,0.00,WUHU216HW,2013-07-27 21:34:00,
2013-07-27 14:35:00,74.0,55.7,29.52,North,0,0.0,0.0,53,0.00,,,0.00,WUHU216HW,2013-07-27 21:35:00,
2013-07-27 14:36:00,74.2,55.9,29.52,North,0,0.0,0.0,53,0.00,,,0.00,WUHU216HW,2013-07-27 21:36:00,
2013-07-27 14:38:00,74.5,56.3,29.52,North,0,0.0,0.0,53,0.00,,,0.00,WUHU216HW,2013-07-27 21:38:00,
2013-07-27 14:39:00,74.9,56.1,29.52,North,0,0.0,0.0,52,0.00,,,0.00,WUHU216HW,2013-07-27 21:39:00,
2013-07-27 14:40:00,74.9,56.1,29.52,North,0,0.0,0.0,52,0.00,,,0.00,WUHU216HW,2013-07-27 21:40:00,
2013-07-27 14:42:00,75.1,56.3,29.52,North,0,0.0,0.0,52,0.00,,,0.00,WUHU216HW,2013-07-27 21:42:00,
2013-07-27 14:43:00,75.2,54.2,29.52,North,0,0.0,0.0,48,0.00,,,0.00,WUHU216HW,2013-07-27 21:43:00,
2013-07-27 14:45:00,75.2,55.4,29.52,North,0,0.0,0.0,50,0.00,,,0.00,WUHU216HW,2013-07-27 21:45:00,
2013-07-27 14:47:00,74.9,54.5,29.51,North,0,0.0,0.0,49,0.00,,,0.00,WUHU216HW,2013-07-27 21:47:00,
2013-07-27 14:48:00,74.7,54.3,29.51,North,0,0.0,0.0,49,0.00,,,0.00,WUHU216HW,2013-07-27 21:48:00,
2013-07-27 14:50:00,74.7,54.9,29.51,North,0,0.0,0.0,50,0.00,,,0.00,WUHU216HW,2013-07-27 21:50:00,
2013-07-27 14:51:00,74.9,55.6,29.51,North,0,0.0,0.0,51,0.00,,,0.00,WUHU216HW,2013-07-27 21:51:00,
2013-07-27 14:52:00,74.9,55.6,29.51,North,0,0.0,0.0,51,0.00,,,0.00,WUHU216HW,2013-07-27 21:52:00,
2013-07-27 14:53:00,74.9,53.3,29.51,North,0,0.0,0.0,47,0.00,,,0.00,WUHU216HW,2013-07-27 21:53:00,
2013-07-27 14:55:00,74.9,54.5,29.51,North,0,0.0,0.0,49,0.00,,,0.00,WUHU216HW,2013-07-27 21:55:00,
2013-07-27 14:56:00,74.7,54.3,29.51,North,0,0.0,0.0,49,0.00,,,0.00,WUHU216HW,2013-07-27 21:56:00,
2013-07-27 14:57:00,74.9,55.1,29.51,North,0,0.0,0.0,50,0.00,,,0.00,WUHU216HW,2013-07-27 21:57:00,
2013-07-27 14:58:00,74.9,55.1,29.51,North,0,0.0,0.0,50,0.00,,,0.00,WUHU216HW,2013-07-27 21:58:00,
2013-07-27 15:00:00,74.9,53.8,29.51,North,0,0.0,0.0,48,0.00,,,0.00,WUHU216HW,2013-07-27 22:00:00,
2013-07-27 15:01:00,74.9,54.5,29.51,North,0,0.0,0.0,49,0.00,,,0.00,WUHU216HW,2013-07-27 22:01:00,
2013-07-27 15:02:00,74.9,54.5,29.51,North,0,0.0,0.0,49,0.00,,,0.00,WUHU216HW,2013-07-27 22:02:00,
2013-07-27 15:03:00,74.9,54.5,29.51,North,0,0.0,0.0,49,0.00,,,0.00,WUHU216HW,2013-07-27 22:03:00,
2013-07-27 15:05:00,75.2,55.4,29.51,North,0,0.0,0.0,50,0.00,,,0.00,WUHU216HW,2013-07-27 22:05:00,
2013-07-27 15:06:00,75.4,55.6,29.51,North,0,0.0,0.0,50,0.00,,,0.00,WUHU216HW,2013-07-27 22:06:00,
2013-07-27 15:07:00,75.6,55.8,29.51,North,0,0.0,0.0,50,0.00,,,0.00,WUHU216HW,2013-07-27 22:07:00,
2013-07-27 15:08:00,75.8,55.9,29.51,North,0,0.0,0.0,50,0.00,,,0.00,WUHU216HW,2013-07-27 22:08:00,
2013-07-27 15:10:00,75.8,54.1,29.51,North,0,0.0,0.0,47,0.00,,,0.00,WUHU216HW,2013-07-27 22:10:00,
2013-07-27 15:11:00,75.6,53.9,29.51,North,0,0.0,0.0,47,0.00,,,0.00,WUHU216HW,2013-07-27 22:11:00,
2013-07-27 15:12:00,75.4,54.4,29.51,North,0,0.0,0.0,48,0.00,,,0.00,WUHU216HW,2013-07-27 22:12:00,
2013-07-27 15:13:00,75.2,54.2,29.51,North,0,0.0,0.0,48,0.00,,,0.00,WUHU216HW,2013-07-27 22:13:00,
2013-07-27 15:15:00,75.2,54.8,29.50,North,0,0.0,0.0,49,0.00,,,0.00,WUHU216HW,2013-07-27 22:15:00,
2013-07-27 15:17:00,75.6,55.2,29.50,North,0,0.0,0.0,49,0.00,,,0.00,WUHU216HW,2013-07-27 22:17:00,
2013-07-27 15:19:00,75.6,55.2,29.50,North,0,0.0,0.0,49,0.00,,,0.00,WUHU216HW,2013-07-27 22:19:00,
2013-07-27 15:21:00,76.0,54.9,29.50,North,0,0.0,0.0,48,0.00,,,0.00,WUHU216HW,2013-07-27 22:21:00,
2013-07-27 15:22:00,76.0,54.3,29.50,North,0,0.0,0.0,47,0.00,,,0.00,WUHU216HW,2013-07-27 22:22:00,
2013-07-27 15:23:00,76.0,54.3,29.50,North,0,0.0,0.0,47,0.00,,,0.00,WUHU216HW,2013-07-27 22:23:00,
2013-07-27 15:24:00,76.0,54.9,29.50,North,0,0.0,0.0,48,0.00,,,0.00,WUHU216HW,2013-07-27 22:24:00,
2013-07-27 15:26:00,76.0,54.9,29.50,North,0,0.0,0.0,48,0.00,,,0.00,WUHU216HW,2013-07-27 22:26:00,
2013-07-27 15:27:00,75.8,54.1,29.50,North,0,0.0,0.0,47,0.00,,,0.00,WUHU216HW,2013-07-27 22:27:00,
2013-07-27 15:28:00,75.8,54.1,29.50,North,0,0.0,0.0,47,0.00,,,0.00,WUHU216HW,2013-07-27 22:28:00,
2013-07-27 15:29:00,75.4,53.7,29.50,North,0,0.0,0.0,47,0.00,,,0.00,WUHU216HW,2013-07-27 22:29:00,
2013-07-27 15:32:00,75.4,54.4,29.50,North,0,0.0,0.0,48,0.00,,,0.00,WUHU216HW,2013-07-27 22:32:00,
2013-07-27 15:33:00,75.4,54.4,29.50,North,0,0.0,0.0,48,0.00,,,0.00,WUHU216HW,2013-07-27 22:33:00,
2013-07-27 15:34:00,76.0,54.3,29.50,North,0,0.0,0.0,47,0.00,,,0.00,WUHU216HW,2013-07-27 22:34:00,
2013-07-27 15:37:00,76.1,55.0,29.50,North,0,0.0,0.0,48,0.00,,,0.00,WUHU216HW,2013-07-27 22:37:00,
2013-07-27 15:38:00,76.3,54.5,29.50,North,0,0.0,0.0,47,0.00,,,0.00,WUHU216HW,2013-07-27 22:38:00,
2013-07-27 15:40:00,76.5,54.7,29.50,North,0,0.0,0.0,47,0.00,,,0.00,WUHU216HW,2013-07-27 22:40:00,
2013-07-27 15:42:00,76.1,53.2,29.50,North,0,0.0,0.0,45,0.00,,,0.00,WUHU216HW,2013-07-27 22:42:00,
2013-07-27 15:43:00,76.1,53.2,29.50,North,0,0.0,0.0,45,0.00,,,0.00,WUHU216HW,2013-07-27 22:43:00,
2013-07-27 15:45:00,75.8,54.1,29.50,North,0,0.0,0.0,47,0.00,,,0.00,WUHU216HW,2013-07-27 22:45:00,
2013-07-27 15:47:00,75.6,53.9,29.50,North,0,0.0,0.0,47,0.00,,,0.00,WUHU216HW,2013-07-27 22:47:00,
2013-07-27 15:48:00,75.6,53.3,29.50,North,0,0.0,0.0,46,0.00,,,0.00,WUHU216HW,2013-07-27 22:48:00,
2013-07-27 15:49:00,75.4,53.2,29.50,North,0,0.0,0.0,46,0.00,,,0.00,WUHU216HW,2013-07-27 22:49:00,
2013-07-27 15:50:00,75.4,53.2,29.50,North,0,0.0,0.0,46,0.00,,,0.00,WUHU216HW,2013-07-27 22:50:00,
2013-07-27 15:52:00,75.2,53.7,29.50,North,0,0.0,0.0,47,0.00,,,0.00,WUHU216HW,2013-07-27 22:52:00,
2013-07-27 15:53:00,75.2,53.7,29.49,North,0,0.0,0.0,47,0.00,,,0.00,WUHU216HW,2013-07-27 22:53:00,
2013-07-27 15:54:00,75.2,54.2,29.49,North,0,0.0,0.0,48,0.00,,,0.00,WUHU216HW,2013-07-27 22:54:00,
2013-07-27 15:56:00,75.4,55.0,29.49,North,0,0.0,0.0,49,0.00,,,0.00,WUHU216HW,2013-07-27 22:56:00,
2013-07-27 15:58:00,75.6,53.9,29.49,North,0,0.0,0.0,47,0.00,,,0.00,WUHU216HW,2013-07-27 22:58:00,
2013-07-27 15:59:00,75.6,53.9,29.49,North,0,0.0,0.0,47,0.00,,,0.00,WUHU216HW,2013-07-27 22:59:00,
2013-07-27 16:01:00,75.6,53.9,29.49,North,0,0.0,0.0,47,0.00,,,0.00,WUHU216HW,2013-07-27 23:01:00,
2013-07-27 16:03:00,75.6,54.5,29.49,North,0,0.0,0.0,48,0.00,,,0.00,WUHU216HW,2013-07-27 23:03:00,
2013-07-27 16:04:00,75.8,54.1,29.49,North,0,0.0,0.0,47,0.00,,,0.00,WUHU216HW,2013-07-27 23:04:00,
2013-07-27 16:06:00,75.8,54.1,29.49,North,0,0.0,0.0,47,0.00,,,0.00,WUHU216HW,2013-07-27 23:06:00,
2013-07-27 16:08:00,76.1,55.0,29.49,North,0,0.0,0.0,48,0.00,,,0.00,WUHU216HW,2013-07-27 23:08:00,
2013-07-27 16:09:00,76.3,53.4,29.49,North,0,0.0,0.0,45,0.00,,,0.00,WUHU216HW,2013-07-27 23:09:00,
2013-07-27 16:12:00,76.3,55.2,29.49,North,0,0.0,0.0,48,0.00,,,0.00,WUHU216HW,2013-07-27 23:12:00,
2013-07-27 16:13:00,76.5,54.7,29.49,North,0,0.0,0.0,47,0.00,,,0.00,WUHU216HW,2013-07-27 23:13:00,
2013-07-27 16:14:00,76.5,54.7,29.49,North,0,0.0,0.0,47,0.00,,,0.00,WUHU216HW,2013-07-27 23:14:00,
2013-07-27 16:17:00,76.7,54.3,29.48,North,0,0.0,0.0,46,0.00,,,0.00,WUHU216HW,2013-07-27 23:17:00,
2013-07-27 16:18:00,76.3,53.4,29.48,North,0,0.0,0.0,45,0.00,,,0.00,WUHU216HW,2013-07-27 23:18:00,
2013-07-27 16:19:00,76.3,53.4,29.48,North,0,0.0,0.0,45,0.00,,,0.00,WUHU216HW,2013-07-27 23:19:00,
2013-07-27 16:20:00,76.3,53.4,29.48,North,0,0.0,0.0,45,0.00,,,0.00,WUHU216HW,2013-07-27 23:20:00,
2013-07-27 16:22:00,76.0,53.6,29.48,North,0,0.0,0.0,46,0.00,,,0.00,WUHU216HW,2013-07-27 23:22:00,
2013-07-27 16:24:00,76.0,54.3,29.48,North,0,0.0,0.0,47,0.00,,,0.00,WUHU216HW,2013-07-27 23:24:00,
2013-07-27 16:25:00,76.0,53.6,29.48,North,0,0.0,0.0,46,0.00,,,0.00,WUHU216HW,2013-07-27 23:25:00,
2013-07-27 16:28:00,75.6,53.3,29.48,North,0,0.0,0.0,46,0.00,,,0.00,WUHU216HW,2013-07-27 23:28:00,
2013-07-27 16:29:00,75.8,52.8,29.48,North,0,0.0,0.0,45,0.00,,,0.00,WUHU216HW,2013-07-27 23:29:00,
2013-07-27 16:30:00,75.6,52.8,29.48,North,0,0.0,0.0,45,0.00,,,0.00,WUHU216HW,2013-07-27 23:30:00,
2013-07-27 16:33:00,76.0,53.0,29.47,North,0,0.0,0.0,45,0.00,,,0.00,WUHU216HW,2013-07-27 23:33:00,
2013-07-27 16:34:00,75.8,52.8,29.47,North,0,0.0,0.0,45,0.00,,,0.00,WUHU216HW,2013-07-27 23:34:00,
2013-07-27 16:35:00,75.6,52.8,29.47,North,0,0.0,0.0,45,0.00,,,0.00,WUHU216HW,2013-07-27 23:35:00,
2013-07-27 16:38:00,75.6,52.8,29.47,North,0,0.0,0.0,45,0.00,,,0.00,WUHU216HW,2013-07-27 23:38:00,
2013-07-27 16:39:00,75.6,53.9,29.47,North,0,0.0,0.0,47,0.00,,,0.00,WUHU216HW,2013-07-27 23:39:00,
2013-07-27 16:40:00,76.0,53.6,29.47,North,0,0.0,0.0,46,0.00,,,0.00,WUHU216HW,2013-07-27 23:40:00,
2013-07-27 16:43:00,76.0,53.6,29.47,North,0,0.0,0.0,46,0.00,,,0.00,WUHU216HW,2013-07-27 23:43:00,
2013-07-27 16:44:00,76.1,53.2,29.47,North,0,0.0,0.0,45,0.00,,,0.00,WUHU216HW,2013-07-27 23:44:00,
2013-07-27 16:45:00,76.0,53.6,29.47,North,0,0.0,0.0,46,0.00,,,0.00,WUHU216HW,2013-07-27 23:45:00,
2013-07-27 16:48:00,76.0,53.0,29.47,North,0,0.0,0.0,45,0.00,,,0.00,WUHU216HW,2013-07-27 23:48:00,
2013-07-27 16:49:00,76.0,53.0,29.47,North,0,0.0,0.0,45,0.00,,,0.00,WUHU216HW,2013-07-27 23:49:00,
2013-07-27 16:50:00,75.8,52.8,29.47,North,0,0.0,0.0,45,0.00,,,0.00,WUHU216HW,2013-07-27 23:50:00,
2013-07-27 16:51:00,75.8,53.5,29.47,North,0,0.0,0.0,46,0.00,,,0.00,WUHU216HW,2013-07-27 23:51:00,
2013-07-27 16:53:00,75.6,52.8,29.47,North,0,0.0,0.0,45,0.00,,,0.00,WUHU216HW,2013-07-27 23:53:00,
2013-07-27 16:54:00,75.6,52.8,29.47,North,0,0.0,0.0,45,0.00,,,0.00,WUHU216HW,2013-07-27 23:54:00,
2013-07-27 16:55:00,75.6,53.3,29.47,North,0,0.0,0.0,46,0.00,,,0.00,WUHU216HW,2013-07-27 23:55:00,
2013-07-27 16:56:00,75.6,52.8,29.47,North,0,0.0,0.0,45,0.00,,,0.00,WUHU216HW,2013-07-27 23:56:00,
2013-07-27 16:59:00,75.4,53.2,29.47,North,0,0.0,0.0,46,0.00,,,0.00,WUHU216HW,2013-07-27 23:59:00,
2013-07-27 17:00:00,75.4,52.6,29.47,North,0,0.0,0.0,45,0.00,,,0.00,WUHU216HW,2013-07-28 00:00:00,
2013-07-27 17:02:00,75.2,51.8,29.47,North,0,0.0,0.0,44,0.00,,,0.00,WUHU216HW,2013-07-28 00:02:00,
2013-07-27 17:04:00,75.1,52.8,29.47,North,0,0.0,0.0,46,0.00,,,0.00,WUHU216HW,2013-07-28 00:04:00,
2013-07-27 17:05:00,75.2,53.0,29.46,North,0,0.0,0.0,46,0.00,,,0.00,WUHU216HW,2013-07-28 00:05:00,
2013-07-27 17:07:00,75.2,53.0,29.47,North,0,0.0,0.0,46,0.00,,,0.00,WUHU216HW,2013-07-28 00:07:00,
2013-07-27 17:09:00,75.2,53.0,29.46,North,0,0.0,0.0,46,0.00,,,0.00,WUHU216HW,2013-07-28 00:09:00,
2013-07-27 17:10:00,75.2,53.0,29.46,North,0,0.0,0.0,46,0.00,,,0.00,WUHU216HW,2013-07-28 00:10:00,
2013-07-27 17:12:00,75.2,52.4,29.46,North,0,0.0,0.0,45,0.00,,,0.00,WUHU216HW,2013-07-28 00:12:00,
2013-07-27 17:15:00,75.2,52.4,29.47,North,0,0.0,0.0,45,0.00,,,0.00,WUHU216HW,2013-07-28 00:15:00,
2013-07-27 17:17:00,75.1,52.2,29.46,North,0,0.0,0.0,45,0.00,,,0.00,WUHU216HW,2013-07-28 00:17:00,
2013-07-27 17:18:00,75.1,52.2,29.46,North,0,0.0,0.0,45,0.00,,,0.00,WUHU216HW,2013-07-28 00:18:00,
2013-07-27 17:20:00,75.1,52.8,29.46,North,0,0.0,0.0,46,0.00,,,0.00,WUHU216HW,2013-07-28 00:20:00,
2013-07-27 17:21:00,75.1,53.5,29.46,North,0,0.0,0.0,47,0.00,,,0.00,WUHU216HW,2013-07-28 00:21:00,
2013-07-27 17:22:00,75.1,53.5,29.46,North,0,0.0,0.0,47,0.00,,,0.00,WUHU216HW,2013-07-28 00:22:00,
2013-07-27 17:23:00,75.2,53.7,29.46,North,0,0.0,0.0,47,0.00,,,0.00,WUHU216HW,2013-07-28 00:23:00,
2013-07-27 17:25:00,75.2,52.4,29.46,North,0,0.0,0.0,45,0.00,,,0.00,WUHU216HW,2013-07-28 00:25:00,
2013-07-27 17:27:00,75.2,53.0,29.46,North,0,0.0,0.0,46,0.00,,,0.00,WUHU216HW,2013-07-28 00:27:00,
2013-07-27 17:28:00,75.1,52.8,29.46,North,0,0.0,0.0,46,0.00,,,0.00,WUHU216HW,2013-07-28 00:28:00,
2013-07-27 17:30:00,75.2,53.7,29.46,North,0,0.0,0.0,47,0.00,,,0.00,WUHU216HW,2013-07-28 00:30:00,
2013-07-27 17:31:00,75.2,53.7,29.46,North,0,0.0,0.0,47,0.00,,,0.00,WUHU216HW,2013-07-28 00:31:00,
2013-07-27 17:32:00,75.2,53.7,29.46,North,0,0.0,0.0,47,0.00,,,0.00,WUHU216HW,2013-07-28 00:32:00,
2013-07-27 17:33:00,75.2,53.7,29.46,North,0,0.0,0.0,47,0.00,,,0.00,WUHU216HW,2013-07-28 00:33:00,
2013-07-27 17:34:00,75.2,52.4,29.46,North,0,0.0,0.0,45,0.00,,,0.00,WUHU216HW,2013-07-28 00:34:00,
2013-07-27 17:35:00,75.2,53.0,29.46,North,0,0.0,0.0,46,0.00,,,0.00,WUHU216HW,2013-07-28 00:35:00,
2013-07-27 17:37:00,75.4,53.7,29.46,North,0,0.0,0.0,47,0.00,,,0.00,WUHU216HW,2013-07-28 00:37:00,
2013-07-27 17:38:00,75.4,53.7,29.46,North,0,0.0,0.0,47,0.00,,,0.00,WUHU216HW,2013-07-28 00:38:00,
2013-07-27 17:39:00,75.4,51.9,29.46,North,0,0.0,0.0,44,0.00,,,0.00,WUHU216HW,2013-07-28 00:39:00,
2013-07-27 17:40:00,75.4,52.6,29.46,North,0,0.0,0.0,45,0.00,,,0.00,WUHU216HW,2013-07-28 00:40:00,
2013-07-27 17:42:00,75.4,53.2,29.46,North,0,0.0,0.0,46,0.00,,,0.00,WUHU216HW,2013-07-28 00:42:00,
2013-07-27 17:43:00,75.2,53.0,29.46,North,0,0.0,0.0,46,0.00,,,0.00,WUHU216HW,2013-07-28 00:43:00,
2013-07-27 17:45:00,75.2,53.0,29.46,North,0,0.0,0.0,46,0.00,,,0.00,WUHU216HW,2013-07-28 00:45:00,
2013-07-27 17:47:00,75.2,53.0,29.46,North,0,0.0,0.0,46,0.00,,,0.00,WUHU216HW,2013-07-28 00:47:00,
2013-07-27 17:48:00,75.2,52.4,29.46,North,0,0.0,0.0,45,0.00,,,0.00,WUHU216HW,2013-07-28 00:48:00,
2013-07-27 17:50:00,74.9,52.7,29.46,North,0,0.0,0.0,46,0.00,,,0.00,WUHU216HW,2013-07-28 00:50:00,
2013-07-27 17:51:00,74.9,52.7,29.46,North,0,0.0,0.0,46,0.00,,,0.00,WUHU216HW,2013-07-28 00:51:00,
2013-07-27 17:52:00,75.1,52.8,29.46,North,0,0.0,0.0,46,0.00,,,0.00,WUHU216HW,2013-07-28 00:52:00,
2013-07-27 17:53:00,75.1,53.5,29.46,North,0,0.0,0.0,47,0.00,,,0.00,WUHU216HW,2013-07-28 00:53:00,
2013-07-27 17:54:00,75.1,52.8,29.46,North,0,0.0,0.0,46,0.00,,,0.00,WUHU216HW,2013-07-28 00:54:00,
2013-07-27 17:56:00,74.9,52.0,29.46,North,0,0.0,0.0,45,0.00,,,0.00,WUHU216HW,2013-07-28 00:56:00,
2013-07-27 17:57:00,74.9,51.4,29.46,North,0,0.0,0.0,44,0.00,,,0.00,WUHU216HW,2013-07-28 00:57:00,
2013-07-27 17:58:00,74.7,51.8,29.46,North,0,0.0,0.0,45,0.00,,,0.00,WUHU216HW,2013-07-28 00:58:00,
2013-07-27 17:59:00,74.7,51.8,29.46,North,0,0.0,0.0,45,0.00,,,0.00,WUHU216HW,2013-07-28 00:59:00,
2013-07-27 18:01:00,74.7,51.8,29.45,North,0,0.0,0.0,45,0.00,,,0.00,WUHU216HW,2013-07-28 01:01:00,
2013-07-27 18:02:00,74.5,52.3,29.45,North,0,0.0,0.0,46,0.00,,,0.00,WUHU216HW,2013-07-28 01:02:00,
2013-07-27 18:03:00,74.5,52.3,29.45,North,0,0.0,0.0,46,0.00,,,0.00,WUHU216HW,2013-07-28 01:03:00,
2013-07-27 18:04:00,74.5,51.7,29.45,North,0,0.0,0.0,45,0.00,,,0.00,WUHU216HW,2013-07-28 01:04:00,
2013-07-27 18:06:00,74.5,52.3,29.45,North,0,0.0,0.0,46,0.00,,,0.00,WUHU216HW,2013-07-28 01:06:00,
2013-07-27 18:07:00,74.3,51.6,29.45,North,0,0.0,0.0,45,0.00,,,0.00,WUHU216HW,2013-07-28 01:07:00,
2013-07-27 18:08:00,74.3,51.6,29.45,North,0,0.0,0.0,45,0.00,,,0.00,WUHU216HW,2013-07-28 01:08:00,
2013-07-27 18:09:00,74.3,52.1,29.45,North,0,0.0,0.0,46,0.00,,,0.00,WUHU216HW,2013-07-28 01:09:00,
2013-07-27 18:11:00,74.3,52.1,29.45,North,0,0.0,0.0,46,0.00,,,0.00,WUHU216HW,2013-07-28 01:11:00,
2013-07-27 18:13:00,74.3,52.1,29.45,North,0,0.0,0.0,46,0.00,,,0.00,WUHU216HW,2013-07-28 01:13:00,
2013-07-27 18:14:00,74.3,52.1,29.45,North,0,0.0,0.0,46,0.00,,,0.00,WUHU216HW,2013-07-28 01:14:00,
2013-07-27 18:17:00,74.2,51.4,29.45,North,0,0.0,0.0,45,0.00,,,0.00,WUHU216HW,2013-07-28 01:17:00,
2013-07-27 18:18:00,74.2,51.9,29.45,North,0,0.0,0.0,46,0.00,,,0.00,WUHU216HW,2013-07-28 01:18:00,
2013-07-27 18:19:00,74.2,51.9,29.45,North,0,0.0,0.0,46,0.00,,,0.00,WUHU216HW,2013-07-28 01:19:00,
2013-07-27 18:22:00,74.2,51.9,29.45,North,0,0.0,0.0,46,0.00,,,0.00,WUHU216HW,2013-07-28 01:22:00,
2013-07-27 18:23:00,74.2,51.9,29.45,North,0,0.0,0.0,46,0.00,,,0.00,WUHU216HW,2013-07-28 01:23:00,
2013-07-27 18:24:00,74.2,51.4,29.45,North,0,0.0,0.0,45,0.00,,,0.00,WUHU216HW,2013-07-28 01:24:00,
2013-07-27 18:27:00,74.0,51.8,29.45,North,0,0.0,0.0,46,0.00,,,0.00,WUHU216HW,2013-07-28 01:27:00,
2013-07-27 18:28:00,74.0,51.8,29.45,North,0,0.0,0.0,46,0.00,,,0.00,WUHU216HW,2013-07-28 01:28:00,
2013-07-27 18:29:00,74.0,51.8,29.45,North,0,0.0,0.0,46,0.00,,,0.00,WUHU216HW,2013-07-28 01:29:00,
2013-07-27 18:30:00,74.0,51.8,29.45,North,0,0.0,0.0,46,0.00,,,0.00,WUHU216HW,2013-07-28 01:30:00,
2013-07-27 18:32:00,74.0,52.4,29.45,North,0,0.0,0.0,47,0.00,,,0.00,WUHU216HW,2013-07-28 01:32:00,
2013-07-27 18:33:00,74.0,52.4,29.45,North,0,0.0,0.0,47,0.00,,,0.00,WUHU216HW,2013-07-28 01:33:00,
2013-07-27 18:34:00,74.0,52.4,29.45,North,0,0.0,0.0,47,0.00,,,0.00,WUHU216HW,2013-07-28 01:34:00,
2013-07-27 18:35:00,74.0,52.4,29.45,North,0,0.0,0.0,47,0.00,,,0.00,WUHU216HW,2013-07-28 01:35:00,
2013-07-27 18:37:00,73.8,52.2,29.45,North,0,0.0,0.0,47,0.00,,,0.00,WUHU216HW,2013-07-28 01:37:00,
2013-07-27 18:39:00,73.8,51.6,29.45,North,0,0.0,0.0,46,0.00,,,0.00,WUHU216HW,2013-07-28 01:39:00,
2013-07-27 18:40:00,73.8,52.2,29.45,North,0,0.0,0.0,47,0.00,,,0.00,WUHU216HW,2013-07-28 01:40:00,
2013-07-27 18:42:00,73.8,52.2,29.45,North,0,0.0,0.0,47,0.00,,,0.00,WUHU216HW,2013-07-28 01:42:00,
2013-07-27 18:44:00,73.8,52.2,29.45,North,0,0.0,0.0,47,0.00,,,0.00,WUHU216HW,2013-07-28 01:44:00,
2013-07-27 18:46:00,73.8,52.2,29.45,North,0,0.0,0.0,47,0.00,,,0.00,WUHU216HW,2013-07-28 01:46:00,
2013-07-27 18:47:00,73.8,52.2,29.45,North,0,0.0,0.0,47,0.00,,,0.00,WUHU216HW,2013-07-28 01:47:00,
2013-07-27 18:48:00,73.6,52.0,29.45,North,0,0.0,0.0,47,0.00,,,0.00,WUHU216HW,2013-07-28 01:48:00,
2013-07-27 18:49:00,73.6,52.0,29.45,North,0,0.0,0.0,47,0.00,,,0.00,WUHU216HW,2013-07-28 01:49:00,
2013-07-27 18:51:00,73.4,51.8,29.45,North,0,0.0,0.0,47,0.00,,,0.00,WUHU216HW,2013-07-28 01:51:00,
2013-07-27 18:52:00,73.4,51.8,29.45,North,0,0.0,0.0,47,0.00,,,0.00,WUHU216HW,2013-07-28 01:52:00,
2013-07-27 18:53:00,73.4,51.8,29.45,North,0,0.0,0.0,47,0.00,,,0.00,WUHU216HW,2013-07-28 01:53:00,
2013-07-27 18:54:00,73.4,51.8,29.45,North,0,0.0,0.0,47,0.00,,,0.00,WUHU216HW,2013-07-28 01:54:00,
2013-07-27 18:56:00,73.4,52.5,29.45,North,0,0.0,0.0,48,0.00,,,0.00,WUHU216HW,2013-07-28 01:56:00,
2013-07-27 18:58:00,73.4,52.5,29.45,North,0,0.0,0.0,48,0.00,,,0.00,WUHU216HW,2013-07-28 01:58:00,
2013-07-27 18:59:00,73.4,52.5,29.45,North,0,0.0,0.0,48,0.00,,,0.00,WUHU216HW,2013-07-28 01:59:00,
2013-07-27 19:00:00,73.4,52.5,29.45,North,0,0.0,0.0,48,0.00,,,0.00,WUHU216HW,2013-07-28 02:00:00,
2013-07-27 19:01:00,73.4,52.5,29.45,North,0,0.0,0.0,48,0.00,,,0.00,WUHU216HW,2013-07-28 02:01:00,
2013-07-27 19:03:00,73.4,52.5,29.45,North,0,0.0,0.0,48,0.00,,,0.00,WUHU216HW,2013-07-28 02:03:00,
2013-07-27 19:04:00,73.4,53.0,29.45,North,0,0.0,0.0,49,0.00,,,0.00,WUHU216HW,2013-07-28 02:04:00,
2013-07-27 19:05:00,73.4,53.0,29.45,North,0,0.0,0.0,49,0.00,,,0.00,WUHU216HW,2013-07-28 02:05:00,
2013-07-27 19:06:00,73.4,53.0,29.45,North,0,0.0,0.0,49,0.00,,,0.00,WUHU216HW,2013-07-28 02:06:00,
2013-07-27 19:08:00,73.4,53.0,29.44,North,0,0.0,0.0,49,0.00,,,0.00,WUHU216HW,2013-07-28 02:08:00,
2013-07-27 19:09:00,73.4,53.0,29.44,North,0,0.0,0.0,49,0.00,,,0.00,WUHU216HW,2013-07-28 02:09:00,
2013-07-27 19:10:00,73.3,52.9,29.44,North,0,0.0,0.0,49,0.00,,,0.00,WUHU216HW,2013-07-28 02:10:00,
2013-07-27 19:11:00,73.3,52.9,29.44,North,0,0.0,0.0,49,0.00,,,0.00,WUHU216HW,2013-07-28 02:11:00,
2013-07-27 19:13:00,73.3,52.9,29.44,North,0,0.0,0.0,49,0.00,,,0.00,WUHU216HW,2013-07-28 02:13:00,
2013-07-27 19:14:00,73.1,52.8,29.44,North,0,0.0,0.0,49,0.00,,,0.00,WUHU216HW,2013-07-28 02:14:00,
2013-07-27 19:15:00,73.1,52.8,29.44,North,0,0.0,0.0,49,0.00,,,0.00,WUHU216HW,2013-07-28 02:15:00,
2013-07-27 19:16:00,73.1,52.8,29.44,North,0,0.0,0.0,49,0.00,,,0.00,WUHU216HW,2013-07-28 02:16:00,
2013-07-27 19:18:00,73.1,52.8,29.44,North,0,0.0,0.0,49,0.00,,,0.00,WUHU216HW,2013-07-28 02:18:00,
2013-07-27 19:19:00,73.1,52.8,29.44,North,0,0.0,0.0,49,0.00,,,0.00,WUHU216HW,2013-07-28 02:19:00,
2013-07-27 19:20:00,72.9,52.6,29.44,North,0,0.0,0.0,49,0.00,,,0.00,WUHU216HW,2013-07-28 02:20:00,
2013-07-27 19:21:00,72.9,52.6,29.44,North,0,0.0,0.0,49,0.00,,,0.00,WUHU216HW,2013-07-28 02:21:00,
2013-07-27 19:23:00,72.9,53.2,29.45,North,0,0.0,0.0,50,0.00,,,0.00,WUHU216HW,2013-07-28 02:23:00,
2013-07-27 19:24:00,72.9,53.2,29.45,North,0,0.0,0.0,50,0.00,,,0.00,WUHU216HW,2013-07-28 02:24:00,
2013-07-27 19:26:00,72.9,53.2,29.44,North,0,0.0,0.0,50,0.00,,,0.00,WUHU216HW,2013-07-28 02:26:00,
2013-07-27 19:27:00,72.7,53.0,29.44,North,0,0.0,0.0,50,0.00,,,0.00,WUHU216HW,2013-07-28 02:27:00,
2013-07-27 19:28:00,72.5,52.8,29.44,North,0,0.0,0.0,50,0.00,,,0.00,WUHU216HW,2013-07-28 02:28:00,
2013-07-27 19:29:00,72.5,52.8,29.44,North,0,0.0,0.0,50,0.00,,,0.00,WUHU216HW,2013-07-28 02:29:00,
2013-07-27 19:31:00,72.4,52.7,29.44,North,0,0.0,0.0,50,0.00,,,0.00,WUHU216HW,2013-07-28 02:31:00,
2013-07-27 19:32:00,72.4,52.7,29.44,North,0,0.0,0.0,50,0.00,,,0.00,WUHU216HW,2013-07-28 02:32:00,
2013-07-27 19:34:00,72.4,52.7,29.44,North,0,0.0,0.0,50,0.00,,,0.00,WUHU216HW,2013-07-28 02:34:00,
2013-07-27 19:35:00,72.4,53.2,29.44,North,0,0.0,0.0,51,0.00,,,0.00,WUHU216HW,2013-07-28 02:35:00,
2013-07-27 19:36:00,72.2,53.0,29.44,North,0,0.0,0.0,51,0.00,,,0.00,WUHU216HW,2013-07-28 02:36:00,
2013-07-27 19:37:00,72.2,52.5,29.44,North,0,0.0,0.0,50,0.00,,,0.00,WUHU216HW,2013-07-28 02:37:00,
2013-07-27 19:39:00,72.0,52.4,29.44,North,0,0.0,0.0,50,0.00,,,0.00,WUHU216HW,2013-07-28 02:39:00,
2013-07-27 19:40:00,72.0,52.4,29.44,North,0,0.0,0.0,50,0.00,,,0.00,WUHU216HW,2013-07-28 02:40:00,
2013-07-27 19:41:00,72.0,52.8,29.44,North,0,0.0,0.0,51,0.00,,,0.00,WUHU216HW,2013-07-28 02:41:00,
2013-07-27 19:42:00,72.0,52.8,29.44,North,0,0.0,0.0,51,0.00,,,0.00,WUHU216HW,2013-07-28 02:42:00,
2013-07-27 19:45:00,71.6,52.6,29.44,North,0,0.0,0.0,51,0.00,,,0.00,WUHU216HW,2013-07-28 02:45:00,
2013-07-27 19:47:00,71.6,52.6,29.44,North,0,0.0,0.0,51,0.00,,,0.00,WUHU216HW,2013-07-28 02:47:00,
2013-07-27 19:50:00,71.5,52.4,29.44,North,0,0.0,0.0,51,0.00,,,0.00,WUHU216HW,2013-07-28 02:50:00,
2013-07-27 19:52:00,71.5,52.8,29.44,North,0,0.0,0.0,52,0.00,,,0.00,WUHU216HW,2013-07-28 02:52:00,
2013-07-27 19:55:00,71.1,52.6,29.44,North,0,0.0,0.0,52,0.00,,,0.00,WUHU216HW,2013-07-28 02:55:00,
2013-07-27 19:57:00,70.9,52.4,29.44,North,0,0.0,0.0,52,0.00,,,0.00,WUHU216HW,2013-07-28 02:57:00,
2013-07-27 19:58:00,70.9,52.4,29.44,North,0,0.0,0.0,52,0.00,,,0.00,WUHU216HW,2013-07-28 02:58:00,
2013-07-27 20:00:00,70.7,52.2,29.44,North,0,0.0,0.0,52,0.00,,,0.00,WUHU216HW,2013-07-28 03:00:00,
2013-07-27 20:03:00,70.6,52.6,29.44,North,0,0.0,0.0,53,0.00,,,0.00,WUHU216HW,2013-07-28 03:03:00,
2013-07-27 20:05:00,70.4,52.4,29.44,North,0,0.0,0.0,53,0.00,,,0.00,WUHU216HW,2013-07-28 03:05:00,
2013-07-27 20:08:00,70.2,52.2,29.44,North,0,0.0,0.0,53,0.00,,,0.00,WUHU216HW,2013-07-28 03:08:00,
2013-07-27 20:11:00,70.2,52.7,29.44,North,0,0.0,0.0,54,0.00,,,0.00,WUHU216HW,2013-07-28 03:11:00,
2013-07-27 20:13:00,70.0,52.1,29.44,North,0,0.0,0.0,53,0.00,,,0.00,WUHU216HW,2013-07-28 03:13:00,
2013-07-27 20:14:00,69.8,51.9,29.44,North,0,0.0,0.0,53,0.00,,,0.00,WUHU216HW,2013-07-28 03:14:00,
2013-07-27 20:16:00,69.7,51.8,29.44,North,0,0.0,0.0,53,0.00,,,0.00,WUHU216HW,2013-07-28 03:16:00,
2013-07-27 20:17:00,69.5,52.1,29.44,North,0,0.0,0.0,54,0.00,,,0.00,WUHU216HW,2013-07-28 03:17:00,
2013-07-27 20:18:00,69.5,52.1,29.44,North,0,0.0,0.0,54,0.00,,,0.00,WUHU216HW,2013-07-28 03:18:00,
2013-07-27 20:19:00,69.5,52.1,29.44,North,0,0.0,0.0,54,0.00,,,0.00,WUHU216HW,2013-07-28 03:19:00,
2013-07-27 20:21:00,69.3,51.9,29.44,North,0,0.0,0.0,54,0.00,,,0.00,WUHU216HW,2013-07-28 03:21:00,
2013-07-27 20:22:00,69.3,52.4,29.44,North,0,0.0,0.0,55,0.00,,,0.00,WUHU216HW,2013-07-28 03:22:00,
2013-07-27 20:23:00,69.3,52.4,29.44,North,0,0.0,0.0,55,0.00,,,0.00,WUHU216HW,2013-07-28 03:23:00,
2013-07-27 20:24:00,69.1,52.2,29.44,North,0,0.0,0.0,55,0.00,,,0.00,WUHU216HW,2013-07-28 03:24:00,
2013-07-27 20:27:00,68.9,52.0,29.44,North,0,0.0,0.0,55,0.00,,,0.00,WUHU216HW,2013-07-28 03:27:00,
2013-07-27 20:28:00,68.8,52.4,29.44,North,0,0.0,0.0,56,0.00,,,0.00,WUHU216HW,2013-07-28 03:28:00,
2013-07-27 20:29:00,68.8,52.4,29.44,North,0,0.0,0.0,56,0.00,,,0.00,WUHU216HW,2013-07-28 03:29:00,
2013-07-27 20:30:00,68.8,52.4,29.44,North,0,0.0,0.0,56,0.00,,,0.00,WUHU216HW,2013-07-28 03:30:00,
2013-07-27 20:32:00,68.4,52.0,29.43,North,0,0.0,0.0,56,0.00,,,0.00,WUHU216HW,2013-07-28 03:32:00,
2013-07-27 20:33:00,68.4,52.0,29.43,North,0,0.0,0.0,56,0.00,,,0.00,WUHU216HW,2013-07-28 03:33:00,
2013-07-27 20:34:00,68.4,52.0,29.43,North,0,0.0,0.0,56,0.00,,,0.00,WUHU216HW,2013-07-28 03:34:00,
2013-07-27 20:35:00,68.0,51.7,29.44,North,0,0.0,0.0,56,0.00,,,0.00,WUHU216HW,2013-07-28 03:35:00,
2013-07-27 20:38:00,67.9,52.0,29.43,North,0,0.0,0.0,57,0.00,,,0.00,WUHU216HW,2013-07-28 03:38:00,
2013-07-27 20:39:00,67.9,52.0,29.43,North,0,0.0,0.0,57,0.00,,,0.00,WUHU216HW,2013-07-28 03:39:00,
2013-07-27 20:40:00,67.5,51.7,29.43,North,0,0.0,0.0,57,0.00,,,0.00,WUHU216HW,2013-07-28 03:40:00,
2013-07-27 20:43:00,67.3,52.0,29.43,North,0,0.0,0.0,58,0.00,,,0.00,WUHU216HW,2013-07-28 03:43:00,
2013-07-27 20:44:00,67.3,52.0,29.43,North,0,0.0,0.0,58,0.00,,,0.00,WUHU216HW,2013-07-28 03:44:00,
2013-07-27 20:46:00,67.0,51.7,29.43,North,0,0.0,0.0,58,0.00,,,0.00,WUHU216HW,2013-07-28 03:46:00,
2013-07-27 20:48:00,66.8,52.0,29.43,North,0,0.0,0.0,59,0.00,,,0.00,WUHU216HW,2013-07-28 03:48:00,
2013-07-27 20:49:00,66.6,52.4,29.43,North,0,0.0,0.0,60,0.00,,,0.00,WUHU216HW,2013-07-28 03:49:00,
2013-07-27 20:51:00,66.6,52.7,29.43,North,0,0.0,0.0,61,0.00,,,0.00,WUHU216HW,2013-07-28 03:51:00,
2013-07-27 20:53:00,66.4,52.6,29.43,North,0,0.0,0.0,61,0.00,,,0.00,WUHU216HW,2013-07-28 03:53:00,
2013-07-27 20:54:00,66.2,53.3,29.44,North,0,0.0,0.0,63,0.00,,,0.00,WUHU216HW,2013-07-28 03:54:00,
2013-07-27 20:56:00,66.1,53.1,29.44,North,0,0.0,0.0,63,0.00,,,0.00,WUHU216HW,2013-07-28 03:56:00,
2013-07-27 20:58:00,65.9,52.9,29.44,North,0,0.0,0.0,63,0.00,,,0.00,WUHU216HW,2013-07-28 03:58:00,
2013-07-27 20:59:00,65.9,52.9,29.44,North,0,0.0,0.0,63,0.00,,,0.00,WUHU216HW,2013-07-28 03:59:00,
2013-07-27 21:00:00,65.9,52.9,29.44,North,0,0.0,0.0,63,0.00,,,0.00,WUHU216HW,2013-07-28 04:00:00,
2013-07-27 21:01:00,65.9,52.9,29.44,North,0,0.0,0.0,63,0.00,,,0.00,WUHU216HW,2013-07-28 04:01:00,
2013-07-27 21:06:00,65.5,52.6,29.44,North,0,0.0,0.0,63,0.00,,,0.00,WUHU216HW,2013-07-28 04:06:00,
2013-07-27 21:07:00,65.5,52.6,29.44,North,0,0.0,0.0,63,0.00,,,0.00,WUHU216HW,2013-07-28 04:07:00,
2013-07-27 21:11:00,65.2,52.2,29.44,North,0,0.0,0.0,63,0.00,,,0.00,WUHU216HW,2013-07-28 04:11:00,
2013-07-27 21:12:00,65.2,52.2,29.44,North,0,0.0,0.0,63,0.00,,,0.00,WUHU216HW,2013-07-28 04:12:00,
2013-07-27 21:16:00,65.0,52.0,29.44,North,0,0.0,0.0,63,0.00,,,0.00,WUHU216HW,2013-07-28 04:16:00,
2013-07-27 21:17:00,64.8,51.8,29.44,North,0,0.0,0.0,63,0.00,,,0.00,WUHU216HW,2013-07-28 04:17:00,
2013-07-27 21:21:00,64.4,51.5,29.44,North,0,0.0,0.0,63,0.00,,,0.00,WUHU216HW,2013-07-28 04:21:00,
2013-07-27 21:22:00,64.4,51.5,29.44,North,0,0.0,0.0,63,0.00,,,0.00,WUHU216HW,2013-07-28 04:22:00,
2013-07-27 21:26:00,64.1,51.6,29.44,North,0,0.0,0.0,64,0.00,,,0.00,WUHU216HW,2013-07-28 04:26:00,
2013-07-27 21:27:00,63.9,51.5,29.44,North,0,0.0,0.0,64,0.00,,,0.00,WUHU216HW,2013-07-28 04:27:00,
2013-07-27 21:28:00,63.9,51.5,29.44,North,0,0.0,0.0,64,0.00,,,0.00,WUHU216HW,2013-07-28 04:28:00,
2013-07-27 21:32:00,63.5,51.6,29.44,North,0,0.0,0.0,65,0.00,,,0.00,WUHU216HW,2013-07-28 04:32:00,
2013-07-27 21:33:00,63.4,51.4,29.44,North,0,0.0,0.0,65,0.00,,,0.00,WUHU216HW,2013-07-28 04:33:00,
2013-07-27 21:37:00,63.0,51.0,29.45,North,0,0.0,0.0,65,0.00,,,0.00,WUHU216HW,2013-07-28 04:37:00,
2013-07-27 21:38:00,63.0,51.4,29.44,North,0,0.0,0.0,66,0.00,,,0.00,WUHU216HW,2013-07-28 04:38:00,
2013-07-27 21:42:00,62.5,51.3,29.44,North,0,0.0,0.0,67,0.00,,,0.00,WUHU216HW,2013-07-28 04:42:00,
2013-07-27 21:43:00,62.3,51.2,29.45,North,0,0.0,0.0,67,0.00,,,0.00,WUHU216HW,2013-07-28 04:43:00,
2013-07-27 21:48:00,62.1,51.4,29.44,North,0,0.0,0.0,68,0.00,,,0.00,WUHU216HW,2013-07-28 04:48:00,
2013-07-27 21:49:00,61.9,51.3,29.44,North,0,0.0,0.0,68,0.00,,,0.00,WUHU216HW,2013-07-28 04:49:00,
2013-07-27 21:53:00,61.7,51.1,29.44,North,0,0.0,0.0,68,0.00,,,0.00,WUHU216HW,2013-07-28 04:53:00,
2013-07-27 21:54:00,61.6,50.9,29.44,North,0,0.0,0.0,68,0.00,,,0.00,WUHU216HW,2013-07-28 04:54:00,
2013-07-27 21:58:00,61.6,50.9,29.44,North,0,0.0,0.0,68,0.00,,,0.00,WUHU216HW,2013-07-28 04:58:00,
2013-07-27 21:59:00,61.4,50.8,29.44,North,0,0.0,0.0,68,0.00,,,0.00,WUHU216HW,2013-07-28 04:59:00,
2013-07-27 22:03:00,61.2,51.0,29.44,North,0,0.0,0.0,69,0.00,,,0.00,WUHU216HW,2013-07-28 05:03:00,
2013-07-27 22:04:00,61.2,51.0,29.44,North,0,0.0,0.0,69,0.00,,,0.00,WUHU216HW,2013-07-28 05:04:00,
2013-07-27 22:09:00,60.8,50.3,29.44,North,0,0.0,0.0,68,0.00,,,0.00,WUHU216HW,2013-07-28 05:09:00,
2013-07-27 22:14:00,60.7,50.5,29.44,North,0,0.0,0.0,69,0.00,,,0.00,WUHU216HW,2013-07-28 05:14:00,
2013-07-27 22:15:00,60.7,50.5,29.44,North,0,0.0,0.0,69,0.00,,,0.00,WUHU216HW,2013-07-28 05:15:00,
2013-07-27 22:19:00,60.5,50.8,29.44,North,0,0.0,0.0,70,0.00,,,0.00,WUHU216HW,2013-07-28 05:19:00,
2013-07-27 22:20:00,60.5,50.8,29.44,North,0,0.0,0.0,70,0.00,,,0.00,WUHU216HW,2013-07-28 05:20:00,
2013-07-27 22:24:00,60.5,50.8,29.44,North,0,0.0,0.0,70,0.00,,,0.00,WUHU216HW,2013-07-28 05:24:00,
2013-07-27 22:25:00,60.5,50.8,29.44,North,0,0.0,0.0,70,0.00,,,0.00,WUHU216HW,2013-07-28 05:25:00,
2013-07-27 22:29:00,60.5,51.1,29.44,North,0,0.0,0.0,71,0.00,,,0.00,WUHU216HW,2013-07-28 05:29:00,
2013-07-27 22:30:00,60.5,51.1,29.44,North,0,0.0,0.0,71,0.00,,,0.00,WUHU216HW,2013-07-28 05:30:00,
2013-07-27 22:34:00,60.5,50.8,29.44,North,0,0.0,0.0,70,0.00,,,0.00,WUHU216HW,2013-07-28 05:34:00,
2013-07-27 22:35:00,60.5,50.8,29.44,North,0,0.0,0.0,70,0.00,,,0.00,WUHU216HW,2013-07-28 05:35:00,
2013-07-27 22:39:00,60.5,50.8,29.44,North,0,0.0,0.0,70,0.00,,,0.00,WUHU216HW,2013-07-28 05:39:00,
2013-07-27 22:40:00,60.5,50.8,29.44,North,0,0.0,0.0,70,0.00,,,0.00,WUHU216HW,2013-07-28 05:40:00,
2013-07-27 22:44:00,60.3,50.6,29.44,North,0,0.0,0.0,70,0.00,,,0.00,WUHU216HW,2013-07-28 05:44:00,
2013-07-27 22:45:00,60.3,50.6,29.44,North,0,0.0,0.0,70,0.00,,,0.00,WUHU216HW,2013-07-28 05:45:00,
2013-07-27 22:46:00,60.3,50.6,29.44,North,0,0.0,0.0,70,0.00,,,0.00,WUHU216HW,2013-07-28 05:46:00,
2013-07-27 22:49:00,60.1,50.4,29.44,North,0,0.0,0.0,70,0.00,,,0.00,WUHU216HW,2013-07-28 05:49:00,
2013-07-27 22:50:00,60.1,50.4,29.44,North,0,0.0,0.0,70,0.00,,,0.00,WUHU216HW,2013-07-28 05:50:00,
2013-07-27 22:51:00,60.1,50.4,29.44,North,0,0.0,0.0,70,0.00,,,0.00,WUHU216HW,2013-07-28 05:51:00,
2013-07-27 22:52:00,59.9,50.2,29.44,North,0,0.0,0.0,70,0.00,,,0.00,WUHU216HW,2013-07-28 05:52:00,
2013-07-27 22:55:00,59.8,50.0,29.44,North,0,0.0,0.0,70,0.00,,,0.00,WUHU216HW,2013-07-28 05:55:00,
2013-07-27 22:56:00,59.8,50.0,29.44,North,0,0.0,0.0,70,0.00,,,0.00,WUHU216HW,2013-07-28 05:56:00,
2013-07-27 22:57:00,59.8,50.4,29.44,North,0,0.0,0.0,71,0.00,,,0.00,WUHU216HW,2013-07-28 05:57:00,
2013-07-27 23:00:00,59.6,50.2,29.43,North,0,0.0,0.0,71,0.00,,,0.00,WUHU216HW,2013-07-28 06:00:00,
2013-07-27 23:01:00,59.4,50.0,29.44,North,0,0.0,0.0,71,0.00,,,0.00,WUHU216HW,2013-07-28 06:01:00,
2013-07-27 23:02:00,59.4,50.0,29.43,North,0,0.0,0.0,71,0.00,,,0.00,WUHU216HW,2013-07-28 06:02:00,
2013-07-27 23:05:00,59.4,50.0,29.43,North,0,0.0,0.0,71,0.00,,,0.00,WUHU216HW,2013-07-28 06:05:00,
2013-07-27 23:06:00,59.4,50.0,29.43,North,0,0.0,0.0,71,0.00,,,0.00,WUHU216HW,2013-07-28 06:06:00,
2013-07-27 23:07:00,59.4,50.4,29.43,North,0,0.0,0.0,72,0.00,,,0.00,WUHU216HW,2013-07-28 06:07:00,
2013-07-27 23:10:00,59.2,50.2,29.44,North,0,0.0,0.0,72,0.00,,,0.00,WUHU216HW,2013-07-28 06:10:00,
2013-07-27 23:11:00,59.2,50.2,29.43,North,0,0.0,0.0,72,0.00,,,0.00,WUHU216HW,2013-07-28 06:11:00,
2013-07-27 23:12:00,59.0,50.4,29.43,North,0,0.0,0.0,73,0.00,,,0.00,WUHU216HW,2013-07-28 06:12:00,
2013-07-27 23:15:00,59.0,50.0,29.44,North,0,0.0,0.0,72,0.00,,,0.00,WUHU216HW,2013-07-28 06:15:00,
2013-07-27 23:16:00,58.9,49.9,29.44,North,0,0.0,0.0,72,0.00,,,0.00,WUHU216HW,2013-07-28 06:16:00,
2013-07-27 23:17:00,58.9,50.2,29.44,North,0,0.0,0.0,73,0.00,,,0.00,WUHU216HW,2013-07-28 06:17:00,
2013-07-27 23:18:00,58.9,50.2,29.44,North,0,0.0,0.0,73,0.00,,,0.00,WUHU216HW,2013-07-28 06:18:00,
2013-07-27 23:20:00,58.7,50.0,29.44,North,0,0.0,0.0,73,0.00,,,0.00,WUHU216HW,2013-07-28 06:20:00,
2013-07-27 23:21:00,58.7,50.0,29.44,North,0,0.0,0.0,73,0.00,,,0.00,WUHU216HW,2013-07-28 06:21:00,
2013-07-27 23:22:00,58.7,50.0,29.44,North,0,0.0,0.0,73,0.00,,,0.00,WUHU216HW,2013-07-28 06:22:00,
2013-07-27 23:23:00,58.7,50.0,29.44,North,0,0.0,0.0,73,0.00,,,0.00,WUHU216HW,2013-07-28 06:23:00,
2013-07-27 23:25:00,58.5,49.9,29.44,North,0,0.0,0.0,73,0.00,,,0.00,WUHU216HW,2013-07-28 06:25:00,
2013-07-27 23:26:00,58.5,49.9,29.44,North,0,0.0,0.0,73,0.00,,,0.00,WUHU216HW,2013-07-28 06:26:00,
2013-07-27 23:28:00,58.3,49.7,29.44,North,0,0.0,0.0,73,0.00,,,0.00,WUHU216HW,2013-07-28 06:28:00,
2013-07-27 23:30:00,58.3,49.7,29.44,North,0,0.0,0.0,73,0.00,,,0.00,WUHU216HW,2013-07-28 06:30:00,
2013-07-27 23:32:00,58.1,49.5,29.44,North,0,0.0,0.0,73,0.00,,,0.00,WUHU216HW,2013-07-28 06:32:00,
2013-07-27 23:33:00,58.1,49.5,29.44,North,0,0.0,0.0,73,0.00,,,0.00,WUHU216HW,2013-07-28 06:33:00,
2013-07-27 23:35:00,58.0,49.7,29.43,North,0,0.0,0.0,74,0.00,,,0.00,WUHU216HW,2013-07-28 06:35:00,
2013-07-27 23:37:00,58.0,49.7,29.44,North,0,0.0,0.0,74,0.00,,,0.00,WUHU216HW,2013-07-28 06:37:00,
2013-07-27 23:38:00,58.0,49.7,29.44,North,0,0.0,0.0,74,0.00,,,0.00,WUHU216HW,2013-07-28 06:38:00,
2013-07-27 23:39:00,58.0,49.7,29.44,North,0,0.0,0.0,74,0.00,,,0.00,WUHU216HW,2013-07-28 06:39:00,
2013-07-27 23:41:00,57.8,49.5,29.44,North,0,0.0,0.0,74,0.00,,,0.00,WUHU216HW,2013-07-28 06:41:00,
2013-07-27 23:42:00,57.8,49.5,29.44,North,0,0.0,0.0,74,0.00,,,0.00,WUHU216HW,2013-07-28 06:42:00,
2013-07-27 23:43:00,57.8,49.5,29.44,North,0,0.0,0.0,74,0.00,,,0.00,WUHU216HW,2013-07-28 06:43:00,
2013-07-27 23:44:00,57.6,49.3,29.43,North,0,0.0,0.0,74,0.00,,,0.00,WUHU216HW,2013-07-28 06:44:00,
2013-07-27 23:46:00,57.6,49.3,29.43,North,0,0.0,0.0,74,0.00,,,0.00,WUHU216HW,2013-07-28 06:46:00,
2013-07-27 23:48:00,57.6,49.7,29.43,North,0,0.0,0.0,75,0.00,,,0.00,WUHU216HW,2013-07-28 06:48:00,
2013-07-27 23:49:00,57.4,49.5,29.43,North,0,0.0,0.0,75,0.00,,,0.00,WUHU216HW,2013-07-28 06:49:00,
2013-07-27 23:51:00,57.4,49.5,29.43,North,0,0.0,0.0,75,0.00,,,0.00,WUHU216HW,2013-07-28 06:51:00,
2013-07-27 23:53:00,57.4,49.9,29.43,North,0,0.0,0.0,76,0.00,,,0.00,WUHU216HW,2013-07-28 06:53:00,
2013-07-27 23:54:00,57.4,49.9,29.43,North,0,0.0,0.0,76,0.00,,,0.00,WUHU216HW,2013-07-28 06:54:00,
2013-07-27 23:56:00,57.2,49.7,29.43,North,0,0.0,0.0,76,0.00,,,0.00,WUHU216HW,2013-07-28 06:56:00,
2013-07-27 23:58:00,57.2,49.7,29.43,North,0,0.0,0.0,76,0.00,,,0.00,WUHU216HW,2013-07-28 06:58:00,
2013-07-27 23:59:00,57.2,49.7,29.44,North,0,0.0,0.0,76,0.00,,,0.00,WUHU216HW,2013-07-28 06:59:00,